| time (UTC) | temp F | wind direction | speed knots | gust knots | rain 1hr in | rain 24hr in | rain mn in | humidity % | barometer mb |
| 20260505041709 | 44 | 336 | 5.2 | 8.7 | 0.00 | 0.00 | 0.00 | 57 | 1006.7 |
| 20260505041613 | 44 | 321 | 5.2 | 8.7 | 0.00 | 0.00 | 0.00 | 57 | 1006.8 |
| 20260505041517 | 44 | 315 | 5.2 | 8.7 | 0.00 | 0.00 | 0.00 | 57 | 1006.7 |
| 20260505041406 | 44 | 355 | 4.3 | 8.7 | 0.00 | 0.00 | 0.00 | 57 | 1006.7 |
| 20260505041331 | 44 | 320 | 4.3 | 8.7 | 0.00 | 0.00 | 0.00 | 57 | 1006.7 |
| 20260505041214 | 44 | 304 | 4.3 | 8.7 | 0.00 | 0.00 | 0.00 | 57 | 1006.7 |
| 20260505041118 | 45 | 305 | 4.3 | 8.7 | 0.00 | 0.00 | 0.00 | 58 | 1006.7 |
| 20260505041024 | 44 | 313 | 3.5 | 8.7 | 0.00 | 0.00 | 0.00 | 57 | 1006.7 |
| 20260505040929 | 44 | 337 | 4.3 | 10.4 | 0.00 | 0.00 | 0.00 | 56 | 1006.8 |
| 20260505040815 | 45 | 296 | 5.2 | 10.4 | 0.00 | 0.00 | 0.00 | 56 | 1006.7 |
| 20260505040719 | 45 | 350 | 5.2 | 10.4 | 0.00 | 0.00 | 0.00 | 55 | 1006.8 |
| 20260505040623 | 45 | 307 | 5.2 | 10.4 | 0.00 | 0.00 | 0.00 | 56 | 1006.7 |
| 20260505040509 | 44 | 323 | 4.3 | 10.4 | 0.00 | 0.00 | 0.00 | 56 | 1006.7 |
| 20260505040432 | 44 | 331 | 5.2 | 10.4 | 0.00 | 0.00 | 0.00 | 56 | 1006.7 |
| 20260505040315 | 44 | 344 | 6.1 | 10.4 | 0.00 | 0.00 | 0.00 | 56 | 1006.7 |
| 20260505040219 | 44 | 348 | 6.1 | 10.4 | 0.00 | 0.00 | 0.00 | 56 | 1006.7 |
| 20260505040128 | 44 | 326 | 7.0 | 10.4 | 0.00 | 0.00 | 0.00 | 57 | 1006.7 |
| 20260505040005 | 44 | 300 | 6.1 | 9.6 | 0.00 | 0.00 | 0.00 | 56 | 1006.8 |
| 20260505035929 | 44 | 337 | 5.2 | 9.6 | 0.00 | 0.00 | 0.00 | 57 | 1006.7 |
| 20260505035812 | 44 | 288 | 6.1 | 9.6 | 0.00 | 0.00 | 0.00 | 56 | 1006.8 |
| 20260505035717 | 44 | 317 | 6.1 | 9.6 | 0.00 | 0.00 | 0.00 | 57 | 1006.8 |
| 20260505035622 | 44 | 321 | 4.3 | 8.7 | 0.00 | 0.00 | 0.00 | 58 | 1006.7 |
| 20260505035510 | 44 | 317 | 3.5 | 9.6 | 0.00 | 0.00 | 0.00 | 58 | 1006.7 |
| 20260505035413 | 44 | 346 | 3.5 | 9.6 | 0.00 | 0.00 | 0.00 | 59 | 1006.7 |
| 20260505035317 | 44 | 298 | 4.3 | 9.6 | 0.00 | 0.00 | 0.00 | 58 | 1006.6 |
| 20260505035222 | 44 | 307 | 4.3 | 9.6 | 0.00 | 0.00 | 0.00 | 57 | 1006.7 |
| 20260505035126 | 44 | 306 | 3.5 | 9.6 | 0.00 | 0.00 | 0.00 | 58 | 1006.7 |
| 20260505035011 | 44 | 327 | 4.3 | 9.6 | 0.00 | 0.00 | 0.00 | 57 | 1006.7 |
| 20260505034918 | 44 | 355 | 5.2 | 9.6 | 0.00 | 0.00 | 0.00 | 58 | 1006.6 |
| 20260505034843 | 44 | 304 | 5.2 | 9.6 | 0.00 | 0.00 | 0.00 | 58 | 1006.6 |
| 20260505034727 | 44 | 331 | 4.3 | 7.8 | 0.00 | 0.00 | 0.00 | 58 | 1006.7 |
| 20260505034631 | 44 | 307 | 4.3 | 7.8 | 0.00 | 0.00 | 0.00 | 58 | 1006.6 |
| 20260505034507 | 44 | 309 | 4.3 | 7.8 | 0.00 | 0.00 | 0.00 | 58 | 1006.7 |
| 20260505034410 | 44 | 338 | 3.5 | 7.8 | 0.00 | 0.00 | 0.00 | 58 | 1006.6 |
| 20260505034315 | 44 | 304 | 4.3 | 7.8 | 0.00 | 0.00 | 0.00 | 58 | 1006.7 |
| 20260505034238 | 44 | 294 | 4.3 | 7.8 | 0.00 | 0.00 | 0.00 | 58 | 1006.7 |
| 20260505034106 | 44 | 325 | 4.3 | 7.0 | 0.00 | 0.00 | 0.00 | 58 | 1006.6 |
| 20260505034010 | 44 | 309 | 4.3 | 7.0 | 0.00 | 0.00 | 0.00 | 58 | 1006.7 |
| 20260505033915 | 44 | 309 | 3.5 | 5.2 | 0.00 | 0.00 | 0.00 | 58 | 1006.7 |
| 20260505033819 | 44 | 299 | 2.6 | 5.2 | 0.00 | 0.00 | 0.00 | 58 | 1006.6 |
| 20260505033723 | 44 | 312 | 2.6 | 5.2 | 0.00 | 0.00 | 0.00 | 59 | 1006.6 |
| 20260505033612 | 44 | 303 | 3.5 | 5.2 | 0.00 | 0.00 | 0.00 | 59 | 1006.6 |
| 20260505033514 | 44 | 311 | 3.5 | 5.2 | 0.00 | 0.00 | 0.00 | 58 | 1006.6 |
| 20260505033419 | 44 | 315 | 2.6 | 7.0 | 0.00 | 0.00 | 0.00 | 58 | 1006.6 |
| 20260505033323 | 44 | 306 | 2.6 | 7.0 | 0.00 | 0.00 | 0.00 | 58 | 1006.6 |
| 20260505033226 | 44 | 298 | 3.5 | 7.0 | 0.00 | 0.00 | 0.00 | 58 | 1006.7 |
| 20260505033111 | 44 | 315 | 3.5 | 7.0 | 0.00 | 0.00 | 0.00 | 58 | 1006.7 |
| 20260505033014 | 44 | 344 | 3.5 | 7.0 | 0.00 | 0.00 | 0.00 | 59 | 1006.7 |
| 20260505032920 | 44 | 331 | 3.5 | 7.0 | 0.00 | 0.00 | 0.00 | 58 | 1006.6 |
| 20260505032806 | 44 | 302 | 3.5 | 7.0 | 0.00 | 0.00 | 0.00 | 58 | 1006.6 |
| 20260505032709 | 44 | 307 | 3.5 | 7.0 | 0.00 | 0.00 | 0.00 | 59 | 1006.6 |
| 20260505032634 | 44 | 312 | 3.5 | 7.0 | 0.00 | 0.00 | 0.00 | 59 | 1006.6 |
| 20260505032518 | 44 | 297 | 3.5 | 7.0 | 0.00 | 0.00 | 0.00 | 59 | 1006.6 |
| 20260505032422 | 44 | 300 | 2.6 | 7.0 | 0.00 | 0.00 | 0.00 | 59 | 1006.6 |
| 20260505032312 | 44 | 327 | 2.6 | 7.0 | 0.00 | 0.00 | 0.00 | 59 | 1006.6 |
| 20260505032216 | 44 | 306 | 2.6 | 7.0 | 0.00 | 0.00 | 0.00 | 57 | 1006.5 |
| 20260505032120 | 45 | 304 | 2.6 | 7.0 | 0.00 | 0.00 | 0.00 | 58 | 1006.6 |
| 20260505032006 | 45 | 309 | 3.5 | 7.0 | 0.00 | 0.00 | 0.00 | 58 | 1006.6 |
| 20260505031930 | 45 | 309 | 3.5 | 7.0 | 0.00 | 0.00 | 0.00 | 58 | 1006.5 |
| 20260505031805 | 45 | 313 | 2.6 | 7.0 | 0.00 | 0.00 | 0.00 | 56 | 1006.6 |
| 20260505031713 | 45 | 313 | 2.6 | 5.2 | 0.00 | 0.00 | 0.00 | 56 | 1006.6 |
| 20260505031619 | 45 | 315 | 3.5 | 5.2 | 0.00 | 0.00 | 0.00 | 55 | 1006.6 |
| 20260505031522 | 45 | 311 | 3.5 | 5.2 | 0.00 | 0.00 | 0.00 | 56 | 1006.5 |
| 20260505031426 | 45 | 302 | 2.6 | 5.2 | 0.00 | 0.00 | 0.00 | 54 | 1006.6 |
| 20260505031331 | 45 | 288 | 2.6 | 5.2 | 0.00 | 0.00 | 0.00 | 56 | 1006.6 |
| 20260505031213 | 45 | 291 | 2.6 | 5.2 | 0.00 | 0.00 | 0.00 | 54 | 1006.6 |
| 20260505031117 | 45 | 311 | 2.6 | 5.2 | 0.00 | 0.00 | 0.00 | 55 | 1006.6 |
| 20260505031005 | 45 | 319 | 3.5 | 5.2 | 0.00 | 0.00 | 0.00 | 54 | 1006.6 |
| 20260505030907 | 45 | 319 | 3.5 | 5.2 | 0.00 | 0.00 | 0.00 | 54 | 1006.6 |
| 20260505030812 | 45 | 320 | 3.5 | 5.2 | 0.00 | 0.00 | 0.00 | 55 | 1006.7 |
| 20260505030715 | 45 | 293 | 3.5 | 5.2 | 0.00 | 0.00 | 0.00 | 55 | 1006.7 |
| 20260505030618 | 45 | 305 | 3.5 | 7.8 | 0.00 | 0.00 | 0.00 | 55 | 1006.6 |
| 20260505030523 | 45 | 355 | 3.5 | 8.7 | 0.00 | 0.00 | 0.00 | 54 | 1006.6 |
| 20260505030412 | 45 | 315 | 3.5 | 9.6 | 0.00 | 0.00 | 0.00 | 54 | 1006.6 |
| 20260505030316 | 45 | 305 | 3.5 | 9.6 | 0.00 | 0.00 | 0.00 | 54 | 1006.6 |
| 20260505030239 | 46 | 313 | 2.6 | 9.6 | 0.00 | 0.00 | 0.00 | 54 | 1006.6 |
| 20260505030123 | 46 | 324 | 2.6 | 9.6 | 0.00 | 0.00 | 0.00 | 53 | 1006.6 |
| 20260505030027 | 46 | 340 | 2.6 | 9.6 | 0.00 | 0.00 | 0.00 | 53 | 1006.5 |
| 20260505025904 | 46 | 318 | 3.5 | 9.6 | 0.00 | 0.00 | 0.00 | 52 | 1006.5 |
| 20260505025829 | 46 | 307 | 4.3 | 9.6 | 0.00 | 0.00 | 0.00 | 52 | 1006.5 |
| 20260505025716 | 45 | 335 | 6.1 | 9.6 | 0.00 | 0.00 | 0.00 | 52 | 1006.4 |
| 20260505025621 | 45 | 319 | 5.2 | 9.6 | 0.00 | 0.00 | 0.00 | 53 | 1006.4 |
| 20260505025523 | 45 | 306 | 3.5 | 8.7 | 0.00 | 0.00 | 0.00 | 53 | 1006.4 |
| 20260505025428 | 46 | 323 | 3.5 | 5.2 | 0.00 | 0.00 | 0.00 | 53 | 1006.5 |
| 20260505025305 | 46 | 333 | 3.5 | 7.8 | 0.00 | 0.00 | 0.00 | 54 | 1006.4 |
| 20260505025209 | 46 | 329 | 2.6 | 7.8 | 0.00 | 0.00 | 0.00 | 53 | 1006.4 |
| 20260505025118 | 46 | 328 | 2.6 | 7.8 | 0.00 | 0.00 | 0.00 | 53 | 1006.4 |
| 20260505025042 | 46 | 328 | 2.6 | 8.7 | 0.00 | 0.00 | 0.00 | 54 | 1006.4 |
| 20260505024925 | 46 | 336 | 2.6 | 8.7 | 0.00 | 0.00 | 0.00 | 53 | 1006.3 |
| 20260505024850 | 46 | 317 | 3.5 | 8.7 | 0.00 | 0.00 | 0.00 | 53 | 1006.3 |
| 20260505024706 | 46 | 316 | 3.5 | 8.7 | 0.00 | 0.00 | 0.00 | 52 | 1006.3 |
| 20260505024611 | 46 | 319 | 4.3 | 8.7 | 0.00 | 0.00 | 0.00 | 52 | 1006.3 |
| 20260505024516 | 46 | 328 | 3.5 | 8.7 | 0.00 | 0.00 | 0.00 | 51 | 1006.2 |
| 20260505024444 | 46 | 342 | 2.6 | 8.7 | 0.00 | 0.00 | 0.00 | 52 | 1006.2 |
| 20260505024327 | 46 | 328 | 4.3 | 8.7 | 0.00 | 0.00 | 0.00 | 52 | 1006.2 |
| 20260505024231 | 46 | 350 | 5.2 | 8.7 | 0.00 | 0.00 | 0.00 | 51 | 1006.2 |
| 20260505024107 | 46 | 331 | 4.3 | 8.7 | 0.00 | 0.00 | 0.00 | 52 | 1006.2 |
| 20260505024032 | 46 | 342 | 3.5 | 8.7 | 0.00 | 0.00 | 0.00 | 52 | 1006.2 |
| 20260505023935 | 46 | 350 | 4.3 | 8.7 | 0.00 | 0.00 | 0.00 | 52 | 1006.2 |
| 20260505023818 | 46 | 329 | 5.2 | 8.7 | 0.00 | 0.00 | 0.00 | 52 | 1006.1 |
| 20260505023707 | 46 | 329 | 3.5 | 8.7 | 0.00 | 0.00 | 0.00 | 52 | 1006.1 |
| 20260505023611 | 46 | 351 | 3.5 | 8.7 | 0.00 | 0.00 | 0.00 | 52 | 1006.1 |
| 20260505023517 | 46 | 303 | 4.3 | 8.7 | 0.00 | 0.00 | 0.00 | 52 | 1006.2 |
| 20260505023422 | 46 | 341 | 4.3 | 8.7 | 0.00 | 0.00 | 0.00 | 52 | 1006.1 |
| 20260505023326 | 46 | 336 | 5.2 | 8.7 | 0.00 | 0.00 | 0.00 | 52 | 1006.1 |
| 20260505023210 | 46 | 337 | 5.2 | 8.7 | 0.00 | 0.00 | 0.00 | 52 | 1006.2 |
| 20260505023114 | 46 | 360 | 3.5 | 8.7 | 0.00 | 0.00 | 0.00 | 52 | 1006.2 |
| 20260505023022 | 46 | 349 | 3.5 | 8.7 | 0.00 | 0.00 | 0.00 | 52 | 1006.1 |
| 20260505022926 | 46 | 312 | 3.5 | 8.7 | 0.00 | 0.00 | 0.00 | 52 | 1006.1 |
| 20260505022804 | 46 | 315 | 4.3 | 8.7 | 0.00 | 0.00 | 0.00 | 53 | 1006.1 |
| 20260505022707 | 46 | 300 | 4.3 | 8.7 | 0.00 | 0.00 | 0.00 | 52 | 1006.2 |
| 20260505022632 | 46 | 355 | 3.5 | 8.7 | 0.00 | 0.00 | 0.00 | 53 | 1006.2 |
| 20260505022514 | 46 | 346 | 4.3 | 8.7 | 0.00 | 0.00 | 0.00 | 53 | 1006.2 |
| 20260505022421 | 46 | 312 | 5.2 | 8.7 | 0.00 | 0.00 | 0.00 | 52 | 1006.1 |
| 20260505022326 | 46 | 329 | 4.3 | 7.8 | 0.00 | 0.00 | 0.00 | 52 | 1006.1 |
| 20260505022207 | 46 | 27 | 3.5 | 7.8 | 0.00 | 0.00 | 0.00 | 52 | 1006.1 |
| 20260505022111 | 46 | 315 | 3.5 | 7.0 | 0.00 | 0.00 | 0.00 | 52 | 1006.0 |
| 20260505022033 | 46 | 346 | 3.5 | 7.0 | 0.00 | 0.00 | 0.00 | 51 | 1006.0 |
| 20260505021915 | 46 | 339 | 3.5 | 7.0 | 0.00 | 0.00 | 0.00 | 52 | 1006.0 |
| 20260505021820 | 46 | 302 | 3.5 | 7.0 | 0.00 | 0.00 | 0.00 | 51 | 1006.0 |
| 20260505021707 | 46 | 331 | 3.5 | 7.0 | 0.00 | 0.00 | 0.00 | 51 | 1006.0 |
| 20260505021631 | 46 | 325 | 3.5 | 7.0 | 0.00 | 0.00 | 0.00 | 51 | 1005.9 |
| 20260505021507 | 46 | 11 | 4.3 | 7.0 | 0.00 | 0.00 | 0.00 | 51 | 1005.9 |
| 20260505021409 | 46 | 36 | 3.5 | 5.2 | 0.00 | 0.00 | 0.00 | 51 | 1005.9 |
| 20260505021314 | 46 | 355 | 2.6 | 5.2 | 0.00 | 0.00 | 0.00 | 51 | 1005.9 |
| 20260505021217 | 46 | 323 | 3.5 | 5.2 | 0.00 | 0.00 | 0.00 | 50 | 1005.9 |
| 20260505021104 | 46 | 344 | 2.6 | 5.2 | 0.00 | 0.00 | 0.00 | 53 | 1005.9 |
| 20260505021029 | 46 | 350 | 2.6 | 5.2 | 0.00 | 0.00 | 0.00 | 51 | 1005.9 |
| 20260505020905 | 46 | 355 | 3.5 | 5.2 | 0.00 | 0.00 | 0.00 | 52 | 1005.9 |
| 20260505020809 | 46 | 340 | 3.5 | 6.1 | 0.00 | 0.00 | 0.00 | 52 | 1005.9 |
| 20260505020734 | 46 | 350 | 2.6 | 5.2 | 0.00 | 0.00 | 0.00 | 52 | 1005.9 |
| 20260505020617 | 46 | 325 | 2.6 | 5.2 | 0.00 | 0.00 | 0.00 | 51 | 1005.9 |
| 20260505020521 | 47 | 325 | 1.7 | 5.2 | 0.00 | 0.00 | 0.00 | 51 | 1005.8 |
| 20260505020427 | 47 | 342 | 2.6 | 5.2 | 0.00 | 0.00 | 0.00 | 51 | 1005.8 |
| 20260505020351 | 47 | 319 | 3.5 | 7.0 | 0.00 | 0.00 | 0.00 | 51 | 1005.8 |
| 20260505020207 | 47 | 355 | 3.5 | 9.6 | 0.00 | 0.00 | 0.00 | 49 | 1005.8 |
| 20260505020110 | 47 | 345 | 2.6 | 9.6 | 0.00 | 0.00 | 0.00 | 50 | 1005.8 |
| 20260505020013 | 47 | 347 | 2.6 | 9.6 | 0.00 | 0.00 | 0.00 | 49 | 1005.9 |
| 20260505015937 | 47 | 330 | 3.5 | 10.4 | 0.00 | 0.00 | 0.00 | 49 | 1005.8 |
| 20260505015818 | 47 | 303 | 3.5 | 10.4 | 0.00 | 0.00 | 0.00 | 50 | 1005.8 |
| 20260505015725 | 47 | 12 | 3.5 | 10.4 | 0.00 | 0.00 | 0.00 | 49 | 1005.8 |
| 20260505015648 | 47 | 351 | 3.5 | 10.4 | 0.00 | 0.00 | 0.00 | 50 | 1005.8 |
| 20260505015551 | 47 | 331 | 5.2 | 10.4 | 0.00 | 0.00 | 0.00 | 50 | 1005.8 |
| 20260505015407 | 47 | 321 | 6.1 | 11.3 | 0.00 | 0.00 | 0.00 | 50 | 1005.8 |
| 20260505015310 | 47 | 341 | 5.2 | 11.3 | 0.00 | 0.00 | 0.00 | 48 | 1005.8 |
| 20260505015214 | 47 | 346 | 6.1 | 11.3 | 0.00 | 0.00 | 0.00 | 47 | 1005.8 |
| 20260505015118 | 47 | 355 | 7.0 | 11.3 | 0.00 | 0.00 | 0.00 | 47 | 1005.8 |
| 20260505015006 | 47 | 355 | 7.0 | 11.3 | 0.00 | 0.00 | 0.00 | 47 | 1005.7 |
| 20260505014930 | 47 | 341 | 6.1 | 11.3 | 0.00 | 0.00 | 0.00 | 48 | 1005.7 |
| 20260505014807 | 47 | 5 | 5.2 | 11.3 | 0.00 | 0.00 | 0.00 | 48 | 1005.7 |
| 20260505014711 | 47 | 355 | 6.1 | 11.3 | 0.00 | 0.00 | 0.00 | 47 | 1005.7 |
| 20260505014615 | 47 | 360 | 7.0 | 11.3 | 0.00 | 0.00 | 0.00 | 47 | 1005.7 |
| 20260505014519 | 47 | 5 | 7.0 | 11.3 | 0.00 | 0.00 | 0.00 | 47 | 1005.6 |
| 20260505014405 | 47 | 26 | 7.0 | 10.4 | 0.00 | 0.00 | 0.00 | 47 | 1005.7 |
| 20260505014329 | 47 | 324 | 6.1 | 10.4 | 0.00 | 0.00 | 0.00 | 47 | 1005.7 |
| 20260505014206 | 48 | 355 | 5.2 | 10.4 | 0.00 | 0.00 | 0.00 | 48 | 1005.7 |
| 20260505014110 | 48 | 329 | 4.3 | 10.4 | 0.00 | 0.00 | 0.00 | 48 | 1005.7 |
| 20260505014014 | 48 | 33 | 5.2 | 13.9 | 0.00 | 0.00 | 0.00 | 48 | 1005.6 |
| 20260505013917 | 48 | 330 | 7.0 | 13.9 | 0.00 | 0.00 | 0.00 | 47 | 1005.7 |
| 20260505013825 | 48 | 348 | 7.8 | 13.9 | 0.00 | 0.00 | 0.00 | 47 | 1005.6 |
| 20260505013750 | 48 | 355 | 7.8 | 13.9 | 0.00 | 0.00 | 0.00 | 47 | 1005.6 |
| 20260505013604 | 48 | 342 | 5.2 | 13.9 | 0.00 | 0.00 | 0.00 | 47 | 1005.6 |
| 20260505013507 | 48 | 19 | 6.1 | 13.9 | 0.00 | 0.00 | 0.00 | 47 | 1005.6 |
| 20260505013411 | 48 | 355 | 7.8 | 13.9 | 0.00 | 0.00 | 0.00 | 47 | 1005.6 |
| 20260505013334 | 48 | 336 | 8.7 | 13.9 | 0.00 | 0.00 | 0.00 | 47 | 1005.5 |
| 20260505013236 | 48 | 329 | 8.7 | 13.9 | 0.00 | 0.00 | 0.00 | 47 | 1005.6 |
| 20260505013118 | 48 | 348 | 7.8 | 13.0 | 0.00 | 0.00 | 0.00 | 48 | 1005.5 |
| 20260505013005 | 48 | 338 | 7.0 | 13.0 | 0.00 | 0.00 | 0.00 | 48 | 1005.5 |
| 20260505012909 | 48 | 331 | 5.2 | 13.0 | 0.00 | 0.00 | 0.00 | 48 | 1005.6 |
| 20260505012811 | 48 | 5 | 6.1 | 14.8 | 0.00 | 0.00 | 0.00 | 48 | 1005.5 |
| 20260505012713 | 48 | 316 | 8.7 | 14.8 | 0.00 | 0.00 | 0.00 | 48 | 1005.5 |
| 20260505012616 | 48 | 346 | 8.7 | 14.8 | 0.00 | 0.00 | 0.00 | 47 | 1005.5 |
| 20260505012540 | 48 | 349 | 7.8 | 14.8 | 0.00 | 0.00 | 0.00 | 47 | 1005.5 |
| 20260505012405 | 48 | 312 | 7.8 | 15.6 | 0.00 | 0.00 | 0.00 | 48 | 1005.5 |
| 20260505012309 | 48 | 5 | 7.0 | 15.6 | 0.00 | 0.00 | 0.00 | 47 | 1005.4 |
| 20260505012213 | 48 | 347 | 7.8 | 15.6 | 0.00 | 0.00 | 0.00 | 47 | 1005.4 |
| 20260505012116 | 48 | 355 | 9.6 | 15.6 | 0.00 | 0.00 | 0.00 | 46 | 1005.4 |
| 20260505012039 | 48 | 355 | 8.7 | 15.6 | 0.00 | 0.00 | 0.00 | 47 | 1005.3 |
| 20260505011921 | 48 | 339 | 7.8 | 16.5 | 0.00 | 0.00 | 0.00 | 47 | 1005.4 |
| 20260505011808 | 48 | 316 | 8.7 | 16.5 | 0.00 | 0.00 | 0.00 | 47 | 1005.4 |
| 20260505011708 | 48 | 355 | 11.3 | 16.5 | 0.00 | 0.00 | 0.00 | 46 | 1005.3 |
| 20260505011613 | 48 | 360 | 11.3 | 16.5 | 0.00 | 0.00 | 0.00 | 46 | 1005.3 |
| 20260505011515 | 48 | 360 | 9.6 | 16.5 | 0.00 | 0.00 | 0.00 | 46 | 1005.4 |
| 20260505011438 | 48 | 355 | 7.8 | 16.5 | 0.00 | 0.00 | 0.00 | 47 | 1005.4 |
| 20260505011320 | 49 | 355 | 7.8 | 16.5 | 0.00 | 0.00 | 0.00 | 48 | 1005.3 |
| 20260505011205 | 49 | 326 | 8.7 | 17.4 | 0.00 | 0.00 | 0.00 | 47 | 1005.3 |
| 20260505011111 | 49 | 5 | 7.8 | 17.4 | 0.00 | 0.00 | 0.00 | 47 | 1005.3 |
| 20260505011014 | 49 | 360 | 6.1 | 17.4 | 0.00 | 0.00 | 0.00 | 49 | 1005.3 |
| 20260505010914 | 49 | 24 | 6.1 | 17.4 | 0.00 | 0.00 | 0.00 | 49 | 1005.3 |
| 20260505010817 | 49 | 315 | 7.0 | 17.4 | 0.00 | 0.00 | 0.00 | 47 | 1005.3 |
| 20260505010720 | 49 | 349 | 7.8 | 17.4 | 0.00 | 0.00 | 0.00 | 47 | 1005.2 |
| 20260505010624 | 49 | 351 | 9.6 | 17.4 | 0.00 | 0.00 | 0.00 | 47 | 1005.3 |
| 20260505010530 | 49 | 344 | 10.4 | 17.4 | 0.00 | 0.00 | 0.00 | 47 | 1005.2 |
| 20260505010406 | 49 | 346 | 11.3 | 17.4 | 0.00 | 0.00 | 0.00 | 48 | 1005.1 |
| 20260505010309 | 49 | 346 | 10.4 | 16.5 | 0.00 | 0.00 | 0.00 | 47 | 1005.2 |
| 20260505010233 | 49 | 20 | 11.3 | 20.0 | 0.00 | 0.00 | 0.00 | 47 | 1005.1 |
| 20260505010116 | 49 | 28 | 10.4 | 20.0 | 0.00 | 0.00 | 0.00 | 48 | 1005.2 |
| 20260505010018 | 49 | 325 | 8.7 | 20.0 | 0.00 | 0.00 | 0.00 | 48 | 1005.2 |
| 20260505005942 | 49 | 344 | 8.7 | 20.0 | 0.00 | 0.00 | 0.00 | 48 | 1005.0 |
| 20260505005807 | 49 | 312 | 10.4 | 20.0 | 0.00 | 0.00 | 0.00 | 48 | 1005.0 |
| 20260505005711 | 49 | 5 | 10.4 | 20.0 | 0.00 | 0.00 | 0.00 | 48 | 1005.1 |
| 20260505005612 | 49 | 360 | 10.4 | 20.0 | 0.00 | 0.00 | 0.00 | 48 | 1005.0 |
| 20260505005515 | 49 | 11 | 9.6 | 20.0 | 0.00 | 0.00 | 0.00 | 48 | 1005.0 |
| 20260505005418 | 49 | 360 | 10.4 | 20.0 | 0.00 | 0.00 | 0.00 | 48 | 1005.0 |
| 20260505005342 | 49 | 5 | 13.0 | 20.0 | 0.00 | 0.00 | 0.00 | 48 | 1005.0 |
| 20260505005224 | 49 | 350 | 13.0 | 20.0 | 0.00 | 0.00 | 0.00 | 48 | 1005.0 |
| 20260505005152 | 49 | 16 | 13.0 | 20.0 | 0.00 | 0.00 | 0.00 | 48 | 1005.0 |
| 20260505005006 | 49 | 342 | 12.2 | 20.0 | 0.00 | 0.00 | 0.00 | 48 | 1005.0 |
| 20260505004930 | 49 | 351 | 9.6 | 19.1 | 0.00 | 0.00 | 0.00 | 50 | 1004.9 |
| 20260505004813 | 49 | 360 | 9.6 | 19.1 | 0.00 | 0.00 | 0.00 | 49 | 1005.0 |
| 20260505004716 | 49 | 327 | 11.3 | 19.1 | 0.00 | 0.00 | 0.00 | 48 | 1005.0 |
| 20260505004619 | 49 | 342 | 10.4 | 16.5 | 0.00 | 0.00 | 0.00 | 49 | 1005.0 |
| 20260505004506 | 49 | 9 | 11.3 | 16.5 | 0.00 | 0.00 | 0.00 | 49 | 1005.0 |
| 20260505004409 | 49 | 338 | 9.6 | 16.5 | 0.00 | 0.00 | 0.00 | 49 | 1005.0 |
| 20260505004312 | 49 | 355 | 9.6 | 16.5 | 0.00 | 0.00 | 0.00 | 49 | 1004.9 |
| 20260505004235 | 49 | 17 | 11.3 | 16.5 | 0.00 | 0.00 | 0.00 | 48 | 1004.9 |
| 20260505004138 | 49 | 23 | 11.3 | 16.5 | 0.00 | 0.00 | 0.00 | 49 | 1004.8 |
| 20260505004020 | 49 | 32 | 10.4 | 15.6 | 0.00 | 0.00 | 0.00 | 50 | 1004.8 |
| 20260505003923 | 49 | 355 | 8.7 | 15.6 | 0.00 | 0.00 | 0.00 | 49 | 1004.9 |
| 20260505003812 | 49 | 344 | 9.6 | 21.7 | 0.00 | 0.00 | 0.00 | 48 | 1004.9 |
| 20260505003736 | 49 | 345 | 10.4 | 21.7 | 0.00 | 0.00 | 0.00 | 49 | 1004.9 |
| 20260505003618 | 49 | 17 | 10.4 | 21.7 | 0.00 | 0.00 | 0.00 | 49 | 1004.9 |
| 20260505003522 | 49 | 317 | 8.7 | 21.7 | 0.00 | 0.00 | 0.00 | 49 | 1004.9 |
| 20260505003406 | 49 | 5 | 10.4 | 21.7 | 0.00 | 0.00 | 0.00 | 48 | 1004.9 |
| 20260505003330 | 50 | 340 | 10.4 | 21.7 | 0.00 | 0.00 | 0.00 | 48 | 1004.9 |
| 20260505003207 | 50 | 12 | 9.6 | 21.7 | 0.00 | 0.00 | 0.00 | 48 | 1004.9 |
| 20260505003116 | 50 | 5 | 9.6 | 21.7 | 0.00 | 0.00 | 0.00 | 48 | 1004.9 |
| 20260505003020 | 50 | 334 | 10.4 | 21.7 | 0.00 | 0.00 | 0.00 | 48 | 1004.8 |
| 20260505002905 | 50 | 360 | 11.3 | 20.0 | 0.00 | 0.00 | 0.00 | 47 | 1004.8 |
| 20260505002828 | 50 | 350 | 11.3 | 20.0 | 0.00 | 0.00 | 0.00 | 47 | 1004.7 |
| 20260505002705 | 50 | 5 | 10.4 | 20.0 | 0.00 | 0.00 | 0.00 | 47 | 1004.7 |
| 20260505002610 | 50 | 5 | 13.0 | 20.0 | 0.00 | 0.00 | 0.00 | 47 | 1004.7 |
| 20260505002537 | 50 | 350 | 14.8 | 20.0 | 0.00 | 0.00 | 0.00 | 47 | 1004.6 |
| 20260505002440 | 50 | 17 | 13.0 | 20.0 | 0.00 | 0.00 | 0.00 | 47 | 1004.7 |
| 20260505002343 | 50 | 344 | 10.4 | 18.2 | 0.00 | 0.00 | 0.00 | 48 | 1004.6 |
| 20260505002226 | 50 | 338 | 11.3 | 18.2 | 0.00 | 0.00 | 0.00 | 47 | 1004.7 |
| 20260505002130 | 50 | 355 | 10.4 | 18.2 | 0.00 | 0.00 | 0.00 | 48 | 1004.6 |
| 20260505002011 | 50 | 5 | 9.6 | 18.2 | 0.00 | 0.00 | 0.00 | 48 | 1004.6 |
| 20260505001914 | 50 | 53 | 10.4 | 18.2 | 0.00 | 0.00 | 0.00 | 48 | 1004.6 |
| 20260505001818 | 50 | 38 | 11.3 | 18.2 | 0.00 | 0.00 | 0.00 | 47 | 1004.6 |
| 20260505001706 | 50 | 355 | 9.6 | 18.2 | 0.00 | 0.00 | 0.00 | 47 | 1004.6 |
| 20260505001630 | 51 | 17 | 10.4 | 18.2 | 0.00 | 0.00 | 0.00 | 47 | 1004.5 |
| 20260505001513 | 51 | 306 | 11.3 | 18.2 | 0.00 | 0.00 | 0.00 | 48 | 1004.5 |
| 20260505001418 | 51 | 338 | 10.4 | 22.6 | 0.00 | 0.00 | 0.00 | 48 | 1004.5 |
| 20260505001322 | 51 | 337 | 9.6 | 22.6 | 0.00 | 0.00 | 0.00 | 47 | 1004.6 |
| 20260505001206 | 51 | 344 | 10.4 | 22.6 | 0.00 | 0.00 | 0.00 | 46 | 1004.5 |
| 20260505001111 | 51 | 355 | 11.3 | 22.6 | 0.00 | 0.00 | 0.00 | 46 | 1004.5 |
| 20260505001018 | 51 | 333 | 12.2 | 22.6 | 0.00 | 0.00 | 0.00 | 46 | 1004.4 |
| 20260505000922 | 51 | 331 | 10.4 | 23.5 | 0.00 | 0.00 | 0.00 | 46 | 1004.4 |
| 20260505000827 | 51 | 13 | 11.3 | 23.5 | 0.00 | 0.00 | 0.00 | 46 | 1004.4 |
| 20260505000751 | 51 | 360 | 14.8 | 23.5 | 0.00 | 0.00 | 0.00 | 45 | 1004.4 |
| 20260505000606 | 51 | 333 | 13.9 | 23.5 | 0.00 | 0.00 | 0.00 | 45 | 1004.4 |
| 20260505000508 | 51 | 336 | 13.0 | 23.5 | 0.00 | 0.00 | 0.00 | 45 | 1004.3 |
| 20260505000417 | 52 | 30 | 13.9 | 23.5 | 0.00 | 0.00 | 0.00 | 45 | 1004.4 |
| 20260505000340 | 52 | 5 | 14.8 | 23.5 | 0.00 | 0.00 | 0.00 | 45 | 1004.3 |
| 20260505000204 | 52 | 350 | 13.9 | 23.5 | 0.00 | 0.00 | 0.00 | 45 | 1004.3 |
| 20260505000128 | 52 | 327 | 13.9 | 23.5 | 0.00 | 0.00 | 0.00 | 45 | 1004.2 |
| 20260505000005 | 52 | 5 | 10.4 | 20.9 | 0.00 | 0.00 | 0.00 | 45 | 1004.2 |
| 20260504235910 | 52 | 360 | 9.6 | 16.5 | 0.00 | 0.00 | 0.00 | 45 | 1004.3 |
| 20260504235814 | 52 | 5 | 9.6 | 19.1 | 0.00 | 0.00 | 0.00 | 44 | 1004.2 |
| 20260504235741 | 52 | 348 | 9.6 | 19.1 | 0.00 | 0.00 | 0.00 | 44 | 1004.1 |
| 20260504235605 | 52 | 346 | 10.4 | 19.1 | 0.00 | 0.00 | 0.00 | 44 | 1004.0 |
| 20260504235509 | 52 | 22 | 9.6 | 19.1 | 0.00 | 0.00 | 0.00 | 44 | 1004.1 |
| 20260504235413 | 52 | 335 | 8.7 | 19.1 | 0.00 | 0.00 | 0.00 | 44 | 1004.1 |
| 20260504235318 | 52 | 336 | 7.8 | 19.1 | 0.00 | 0.00 | 0.00 | 45 | 1004.1 |
| 20260504235242 | 52 | 355 | 8.7 | 19.1 | 0.00 | 0.00 | 0.00 | 45 | 1004.1 |
| 20260504235145 | 52 | 343 | 11.3 | 19.1 | 0.00 | 0.00 | 0.00 | 44 | 1004.1 |
| 20260504235012 | 52 | 343 | 13.9 | 19.1 | 0.00 | 0.00 | 0.00 | 43 | 1004.0 |
| 20260504234936 | 52 | 323 | 13.0 | 19.1 | 0.00 | 0.00 | 0.00 | 43 | 1004.0 |
| 20260504234819 | 53 | 323 | 11.3 | 17.4 | 0.00 | 0.00 | 0.00 | 44 | 1004.0 |
| 20260504234723 | 53 | 336 | 8.7 | 17.4 | 0.00 | 0.00 | 0.00 | 45 | 1003.9 |
| 20260504234648 | 53 | 346 | 10.4 | 17.4 | 0.00 | 0.00 | 0.00 | 44 | 1004.0 |
| 20260504234504 | 53 | 348 | 12.2 | 17.4 | 0.00 | 0.00 | 0.00 | 44 | 1004.0 |
| 20260504234408 | 53 | 348 | 12.2 | 17.4 | 0.00 | 0.00 | 0.00 | 44 | 1004.0 |
| 20260504234316 | 53 | 355 | 10.4 | 17.4 | 0.00 | 0.00 | 0.00 | 44 | 1003.8 |
| 20260504234220 | 53 | 355 | 9.6 | 17.4 | 0.00 | 0.00 | 0.00 | 44 | 1003.9 |
| 20260504234105 | 53 | 13 | 8.7 | 17.4 | 0.00 | 0.00 | 0.00 | 44 | 1003.8 |
| 20260504234009 | 53 | 344 | 8.7 | 20.0 | 0.00 | 0.00 | 0.00 | 44 | 1003.9 |
| 20260504233912 | 53 | 5 | 10.4 | 20.0 | 0.00 | 0.00 | 0.00 | 44 | 1003.9 |
| 20260504233817 | 53 | 5 | 8.7 | 20.9 | 0.00 | 0.00 | 0.00 | 44 | 1003.9 |
| 20260504233705 | 53 | 5 | 8.7 | 20.9 | 0.00 | 0.00 | 0.00 | 44 | 1003.9 |
| 20260504233630 | 53 | 355 | 9.6 | 20.9 | 0.00 | 0.00 | 0.00 | 43 | 1003.9 |
| 20260504233512 | 53 | 350 | 9.6 | 20.9 | 0.00 | 0.00 | 0.00 | 43 | 1003.8 |
| 20260504233417 | 53 | 5 | 9.6 | 21.7 | 0.00 | 0.00 | 0.00 | 44 | 1003.8 |
| 20260504233321 | 53 | 348 | 11.3 | 21.7 | 0.00 | 0.00 | 0.00 | 44 | 1003.7 |
| 20260504233206 | 53 | 17 | 13.9 | 21.7 | 0.00 | 0.00 | 0.00 | 42 | 1003.8 |
| 20260504233114 | 53 | 355 | 13.9 | 21.7 | 0.00 | 0.00 | 0.00 | 42 | 1003.6 |
| 20260504233019 | 53 | 360 | 12.2 | 21.7 | 0.00 | 0.00 | 0.00 | 43 | 1003.8 |
| 20260504232923 | 53 | 5 | 12.2 | 21.7 | 0.00 | 0.00 | 0.00 | 44 | 1003.8 |
| 20260504232828 | 53 | 331 | 13.9 | 21.7 | 0.00 | 0.00 | 0.00 | 44 | 1003.7 |
| 20260504232710 | 53 | 355 | 13.9 | 21.7 | 0.00 | 0.00 | 0.00 | 43 | 1003.7 |
| 20260504232614 | 54 | 23 | 14.8 | 21.7 | 0.00 | 0.00 | 0.00 | 43 | 1003.6 |
| 20260504232523 | 54 | 30 | 15.6 | 20.9 | 0.00 | 0.00 | 0.00 | 43 | 1003.7 |
| 20260504232427 | 54 | 10 | 15.6 | 20.9 | 0.00 | 0.00 | 0.00 | 43 | 1003.6 |
| 20260504232330 | 54 | 21 | 13.9 | 20.9 | 0.00 | 0.00 | 0.00 | 43 | 1003.6 |
| 20260504232207 | 54 | 338 | 13.0 | 20.9 | 0.00 | 0.00 | 0.00 | 43 | 1003.6 |
| 20260504232130 | 54 | 325 | 13.0 | 20.9 | 0.00 | 0.00 | 0.00 | 44 | 1003.7 |
| 20260504232013 | 54 | 22 | 8.7 | 19.1 | 0.00 | 0.00 | 0.00 | 45 | 1003.5 |
| 20260504231939 | 53 | 339 | 7.8 | 16.5 | 0.00 | 0.00 | 0.00 | 45 | 1003.6 |
| 20260504231805 | 53 | 9 | 9.6 | 18.2 | 0.00 | 0.00 | 0.00 | 44 | 1003.6 |
| 20260504231729 | 53 | 344 | 10.4 | 18.2 | 0.00 | 0.00 | 0.00 | 45 | 1003.6 |
| 20260504231606 | 53 | 328 | 10.4 | 18.2 | 0.00 | 0.00 | 0.00 | 45 | 1003.5 |
| 20260504231511 | 53 | 360 | 10.4 | 18.2 | 0.00 | 0.00 | 0.00 | 45 | 1003.6 |
| 20260504231436 | 53 | 334 | 9.6 | 18.2 | 0.00 | 0.00 | 0.00 | 45 | 1003.6 |
| 20260504231319 | 54 | 292 | 9.6 | 18.2 | 0.00 | 0.00 | 0.00 | 44 | 1003.6 |
| 20260504231222 | 54 | 11 | 12.2 | 18.2 | 0.00 | 0.00 | 0.00 | 44 | 1003.6 |
| 20260504231111 | 54 | 360 | 13.0 | 18.2 | 0.00 | 0.00 | 0.00 | 43 | 1003.6 |
| 20260504231015 | 54 | 355 | 12.2 | 18.2 | 0.00 | 0.00 | 0.00 | 44 | 1003.5 |
| 20260504230920 | 54 | 17 | 12.2 | 18.2 | 0.00 | 0.00 | 0.00 | 43 | 1003.5 |
| 20260504230823 | 54 | 350 | 11.3 | 20.9 | 0.00 | 0.00 | 0.00 | 44 | 1003.6 |
| 20260504230728 | 54 | 347 | 8.7 | 20.9 | 0.00 | 0.00 | 0.00 | 45 | 1003.5 |
| 20260504230611 | 54 | 343 | 10.4 | 20.9 | 0.00 | 0.00 | 0.00 | 43 | 1003.6 |
| 20260504230520 | 54 | 347 | 10.4 | 20.9 | 0.00 | 0.00 | 0.00 | 43 | 1003.5 |
| 20260504230404 | 54 | 351 | 11.3 | 20.9 | 0.00 | 0.00 | 0.00 | 43 | 1003.5 |
| 20260504230328 | 54 | 38 | 11.3 | 20.9 | 0.00 | 0.00 | 0.00 | 43 | 1003.5 |
| 20260504230205 | 54 | 323 | 11.3 | 20.9 | 0.00 | 0.00 | 0.00 | 43 | 1003.5 |
| 20260504230129 | 54 | 346 | 12.2 | 20.9 | 0.00 | 0.00 | 0.00 | 43 | 1003.5 |
| 20260504230012 | 54 | 355 | 13.0 | 20.9 | 0.00 | 0.00 | 0.00 | 42 | 1003.5 |
| 20260504225936 | 55 | 339 | 10.4 | 20.9 | 0.00 | 0.00 | 0.00 | 44 | 1003.5 |
| 20260504225822 | 55 | 348 | 8.7 | 20.9 | 0.00 | 0.00 | 0.00 | 44 | 1003.5 |
| 20260504225707 | 54 | 31 | 10.4 | 20.9 | 0.00 | 0.00 | 0.00 | 43 | 1003.5 |
| 20260504225611 | 54 | 355 | 11.3 | 20.9 | 0.00 | 0.00 | 0.00 | 43 | 1003.5 |
| 20260504225536 | 54 | 351 | 13.9 | 20.9 | 0.00 | 0.00 | 0.00 | 43 | 1003.5 |
| 20260504225438 | 54 | 355 | 12.2 | 20.0 | 0.00 | 0.00 | 0.00 | 43 | 1003.5 |
| 20260504225322 | 54 | 331 | 10.4 | 20.0 | 0.00 | 0.00 | 0.00 | 44 | 1003.5 |
| 20260504225207 | 54 | 335 | 10.4 | 15.6 | 0.00 | 0.00 | 0.00 | 44 | 1003.4 |
| 20260504225135 | 54 | 311 | 9.6 | 19.1 | 0.00 | 0.00 | 0.00 | 43 | 1003.4 |
| 20260504225018 | 54 | 295 | 11.3 | 20.0 | 0.00 | 0.00 | 0.00 | 44 | 1003.4 |
| 20260504224923 | 54 | 319 | 11.3 | 20.0 | 0.00 | 0.00 | 0.00 | 42 | 1003.4 |
| 20260504224809 | 54 | 335 | 9.6 | 20.0 | 0.00 | 0.00 | 0.00 | 43 | 1003.5 |
| 20260504224713 | 55 | 350 | 8.7 | 20.0 | 0.00 | 0.00 | 0.00 | 43 | 1003.5 |
| 20260504224617 | 55 | 317 | 9.6 | 20.0 | 0.00 | 0.00 | 0.00 | 43 | 1003.4 |
| 20260504224505 | 55 | 344 | 10.4 | 20.0 | 0.00 | 0.00 | 0.00 | 43 | 1003.4 |
| 20260504224406 | 55 | 344 | 10.4 | 20.0 | 0.00 | 0.00 | 0.00 | 44 | 1003.4 |
| 20260504224331 | 55 | 360 | 12.2 | 20.0 | 0.00 | 0.00 | 0.00 | 43 | 1003.4 |
| 20260504224207 | 55 | 328 | 14.8 | 20.0 | 0.00 | 0.00 | 0.00 | 43 | 1003.3 |
| 20260504224112 | 55 | 344 | 13.0 | 20.0 | 0.00 | 0.00 | 0.00 | 44 | 1003.3 |
| 20260504224017 | 55 | 355 | 11.3 | 20.0 | 0.00 | 0.00 | 0.00 | 44 | 1003.2 |
| 20260504223906 | 55 | 355 | 8.7 | 20.0 | 0.00 | 0.00 | 0.00 | 45 | 1003.2 |
| 20260504223810 | 55 | 327 | 7.0 | 20.0 | 0.00 | 0.00 | 0.00 | 46 | 1003.2 |
| 20260504223716 | 55 | 5 | 7.8 | 20.0 | 0.00 | 0.00 | 0.00 | 45 | 1003.2 |
| 20260504223620 | 55 | 355 | 8.7 | 20.0 | 0.00 | 0.00 | 0.00 | 44 | 1003.2 |
| 20260504223505 | 55 | 350 | 10.4 | 20.0 | 0.00 | 0.00 | 0.00 | 44 | 1003.2 |
| 20260504223430 | 55 | 14 | 12.2 | 20.0 | 0.00 | 0.00 | 0.00 | 44 | 1003.1 |
| 20260504223313 | 55 | 351 | 13.0 | 20.0 | 0.00 | 0.00 | 0.00 | 43 | 1003.1 |
| 20260504223222 | 55 | 338 | 11.3 | 20.9 | 0.00 | 0.00 | 0.00 | 43 | 1003.1 |
| 20260504223127 | 55 | 11 | 7.8 | 20.9 | 0.00 | 0.00 | 0.00 | 45 | 1003.0 |
| 20260504223030 | 55 | 348 | 7.0 | 20.9 | 0.00 | 0.00 | 0.00 | 45 | 1003.2 |
| 20260504222905 | 54 | 5 | 9.6 | 20.9 | 0.00 | 0.00 | 0.00 | 44 | 1003.0 |
| 20260504222809 | 54 | 346 | 13.0 | 20.9 | 0.00 | 0.00 | 0.00 | 43 | 1003.0 |
| 20260504222714 | 54 | 355 | 13.0 | 20.9 | 0.00 | 0.00 | 0.00 | 44 | 1002.9 |
| 20260504222621 | 54 | 344 | 13.9 | 20.9 | 0.00 | 0.00 | 0.00 | 45 | 1002.9 |
| 20260504222505 | 55 | 360 | 13.9 | 21.7 | 0.00 | 0.00 | 0.00 | 43 | 1002.9 |
| 20260504222429 | 55 | 355 | 14.8 | 23.5 | 0.00 | 0.00 | 0.00 | 44 | 1002.8 |
| 20260504222313 | 55 | 350 | 14.8 | 23.5 | 0.00 | 0.00 | 0.00 | 44 | 1002.9 |
| 20260504222217 | 55 | 346 | 11.3 | 23.5 | 0.00 | 0.00 | 0.00 | 45 | 1002.8 |
| 20260504222120 | 55 | 360 | 8.7 | 23.5 | 0.00 | 0.00 | 0.00 | 44 | 1002.8 |
| 20260504222009 | 55 | 340 | 9.6 | 23.5 | 0.00 | 0.00 | 0.00 | 45 | 1002.8 |
| 20260504221912 | 55 | 331 | 12.2 | 23.5 | 0.00 | 0.00 | 0.00 | 45 | 1002.8 |
| 20260504221816 | 55 | 355 | 13.9 | 23.5 | 0.00 | 0.00 | 0.00 | 45 | 1002.8 |
| 20260504221720 | 55 | 333 | 14.8 | 23.5 | 0.00 | 0.00 | 0.00 | 45 | 1002.9 |
| 20260504221644 | 55 | 334 | 11.3 | 23.5 | 0.00 | 0.00 | 0.00 | 45 | 1002.8 |
| 20260504221526 | 55 | 355 | 7.0 | 22.6 | 0.00 | 0.00 | 0.00 | 46 | 1002.7 |
| 20260504221409 | 55 | 355 | 6.1 | 22.6 | 0.00 | 0.00 | 0.00 | 46 | 1002.7 |
| 20260504221332 | 55 | 346 | 7.0 | 22.6 | 0.00 | 0.00 | 0.00 | 46 | 1002.7 |
| 20260504221218 | 55 | 332 | 7.0 | 22.6 | 0.00 | 0.00 | 0.00 | 45 | 1002.7 |
| 20260504221122 | 55 | 17 | 7.8 | 22.6 | 0.00 | 0.00 | 0.00 | 44 | 1002.7 |
| 20260504221007 | 55 | 322 | 12.2 | 22.6 | 0.00 | 0.00 | 0.00 | 45 | 1002.7 |
| 20260504220911 | 55 | 323 | 13.0 | 22.6 | 0.00 | 0.00 | 0.00 | 45 | 1002.7 |
| 20260504220815 | 55 | 348 | 15.6 | 22.6 | 0.00 | 0.00 | 0.00 | 44 | 1002.7 |
| 20260504220720 | 55 | 333 | 14.8 | 22.6 | 0.00 | 0.00 | 0.00 | 43 | 1002.6 |
| 20260504220628 | 55 | 335 | 11.3 | 20.0 | 0.00 | 0.00 | 0.00 | 45 | 1002.6 |
| 20260504220505 | 55 | 21 | 12.2 | 20.0 | 0.00 | 0.00 | 0.00 | 44 | 1002.6 |
| 20260504220409 | 55 | 310 | 13.9 | 20.0 | 0.00 | 0.00 | 0.00 | 44 | 1002.5 |
| 20260504220314 | 55 | 355 | 11.3 | 20.0 | 0.00 | 0.00 | 0.00 | 45 | 1002.5 |
| 20260504220237 | 55 | 345 | 10.4 | 20.0 | 0.00 | 0.00 | 0.00 | 46 | 1002.6 |
| 20260504220141 | 55 | 360 | 11.3 | 19.1 | 0.00 | 0.00 | 0.00 | 45 | 1002.5 |
| 20260504220043 | 55 | 344 | 11.3 | 19.1 | 0.00 | 0.00 | 0.00 | 46 | 1002.5 |
| 20260504215911 | 55 | 328 | 12.2 | 19.1 | 0.00 | 0.00 | 0.00 | 45 | 1002.6 |
| 20260504215835 | 55 | 342 | 11.3 | 20.0 | 0.00 | 0.00 | 0.00 | 45 | 1002.5 |
| 20260504215718 | 55 | 338 | 9.6 | 20.0 | 0.00 | 0.00 | 0.00 | 46 | 1002.5 |
| 20260504215621 | 55 | 39 | 10.4 | 20.0 | 0.00 | 0.00 | 0.00 | 46 | 1002.5 |
| 20260504215506 | 55 | 355 | 11.3 | 20.0 | 0.00 | 0.00 | 0.00 | 46 | 1002.5 |
| 20260504215409 | 55 | 316 | 10.4 | 20.0 | 0.00 | 0.00 | 0.00 | 46 | 1002.4 |
| 20260504215335 | 55 | 335 | 10.4 | 20.0 | 0.00 | 0.00 | 0.00 | 46 | 1002.4 |
| 20260504215238 | 55 | 323 | 10.4 | 20.0 | 0.00 | 0.00 | 0.00 | 46 | 1002.4 |
| 20260504215145 | 56 | 360 | 11.3 | 21.7 | 0.00 | 0.00 | 0.00 | 45 | 1002.4 |
| 20260504215028 | 56 | 5 | 13.0 | 21.7 | 0.00 | 0.00 | 0.00 | 46 | 1002.4 |
| 20260504214905 | 56 | 22 | 11.3 | 21.7 | 0.00 | 0.00 | 0.00 | 46 | 1002.3 |
| 20260504214810 | 56 | 348 | 11.3 | 21.7 | 0.00 | 0.00 | 0.00 | 45 | 1002.3 |
| 20260504214736 | 56 | 5 | 12.2 | 21.7 | 0.00 | 0.00 | 0.00 | 45 | 1002.3 |
| 20260504214639 | 56 | 17 | 13.0 | 21.7 | 0.00 | 0.00 | 0.00 | 45 | 1002.3 |
| 20260504214522 | 57 | 16 | 13.0 | 21.7 | 0.00 | 0.00 | 0.00 | 45 | 1002.3 |
| 20260504214410 | 57 | 19 | 14.8 | 21.7 | 0.00 | 0.00 | 0.00 | 46 | 1002.1 |
| 20260504214315 | 57 | 360 | 13.0 | 21.7 | 0.00 | 0.00 | 0.00 | 46 | 1002.3 |
| 20260504214219 | 57 | 13 | 9.6 | 21.7 | 0.00 | 0.00 | 0.00 | 47 | 1002.2 |
| 20260504214123 | 56 | 38 | 11.3 | 21.7 | 0.00 | 0.00 | 0.00 | 46 | 1002.2 |
| 20260504214027 | 56 | 327 | 14.8 | 22.6 | 0.00 | 0.00 | 0.00 | 46 | 1002.2 |
| 20260504213910 | 56 | 35 | 13.9 | 22.6 | 0.00 | 0.00 | 0.00 | 45 | 1002.1 |
| 20260504213819 | 56 | 5 | 10.4 | 22.6 | 0.00 | 0.00 | 0.00 | 46 | 1002.1 |
| 20260504213723 | 56 | 24 | 9.6 | 22.6 | 0.00 | 0.00 | 0.00 | 46 | 1002.1 |
| 20260504213608 | 56 | 12 | 10.4 | 22.6 | 0.00 | 0.00 | 0.00 | 46 | 1002.1 |
| 20260504213513 | 56 | 13 | 11.3 | 22.6 | 0.00 | 0.00 | 0.00 | 44 | 1002.2 |
| 20260504213417 | 56 | 355 | 14.8 | 22.6 | 0.00 | 0.00 | 0.00 | 44 | 1002.2 |
| 20260504213322 | 56 | 9 | 14.8 | 22.6 | 0.00 | 0.00 | 0.00 | 44 | 1002.1 |
| 20260504213209 | 56 | 344 | 13.9 | 22.6 | 0.00 | 0.00 | 0.00 | 44 | 1002.1 |
| 20260504213113 | 56 | 338 | 14.8 | 21.7 | 0.00 | 0.00 | 0.00 | 45 | 1002.1 |
| 20260504213037 | 56 | 5 | 15.6 | 21.7 | 0.00 | 0.00 | 0.00 | 45 | 1002.0 |
| 20260504212920 | 56 | 351 | 13.0 | 19.1 | 0.00 | 0.00 | 0.00 | 47 | 1002.0 |
| 20260504212844 | 56 | 355 | 11.3 | 20.0 | 0.00 | 0.00 | 0.00 | 46 | 1002.0 |
| 20260504212728 | 56 | 38 | 11.3 | 20.0 | 0.00 | 0.00 | 0.00 | 47 | 1002.0 |
| 20260504212606 | 55 | 347 | 13.0 | 20.0 | 0.00 | 0.00 | 0.00 | 46 | 1002.0 |
| 20260504212514 | 55 | 19 | 13.0 | 20.0 | 0.00 | 0.00 | 0.00 | 47 | 1002.1 |
| 20260504212439 | 55 | 34 | 11.3 | 21.7 | 0.00 | 0.00 | 0.00 | 46 | 1002.0 |
| 20260504212323 | 55 | 9 | 11.3 | 21.7 | 0.00 | 0.00 | 0.00 | 46 | 1002.0 |
| 20260504212226 | 56 | 346 | 13.0 | 21.7 | 0.00 | 0.00 | 0.00 | 46 | 1002.0 |
| 20260504212110 | 56 | 355 | 13.0 | 21.7 | 0.00 | 0.00 | 0.00 | 46 | 1002.0 |
| 20260504212015 | 56 | 355 | 12.2 | 21.7 | 0.00 | 0.00 | 0.00 | 47 | 1002.0 |
| 20260504211918 | 56 | 360 | 10.4 | 21.7 | 0.00 | 0.00 | 0.00 | 48 | 1002.0 |
| 20260504211827 | 56 | 26 | 12.2 | 21.7 | 0.00 | 0.00 | 0.00 | 46 | 1001.9 |
| 20260504211751 | 56 | 15 | 13.0 | 21.7 | 0.00 | 0.00 | 0.00 | 46 | 1002.0 |
| 20260504211607 | 56 | 346 | 12.2 | 21.7 | 0.00 | 0.00 | 0.00 | 47 | 1002.1 |
| 20260504211511 | 56 | 360 | 10.4 | 19.1 | 0.00 | 0.00 | 0.00 | 46 | 1001.9 |
| 20260504211414 | 56 | 360 | 11.3 | 19.1 | 0.00 | 0.00 | 0.00 | 48 | 1002.0 |
| 20260504211319 | 56 | 329 | 13.0 | 19.1 | 0.00 | 0.00 | 0.00 | 47 | 1002.0 |
| 20260504211206 | 56 | 315 | 10.4 | 19.1 | 0.00 | 0.00 | 0.00 | 49 | 1001.8 |
| 20260504211131 | 56 | 355 | 7.8 | 18.2 | 0.00 | 0.00 | 0.00 | 49 | 1001.9 |
| 20260504211007 | 56 | 350 | 7.8 | 19.1 | 0.00 | 0.00 | 0.00 | 48 | 1002.0 |
| 20260504210910 | 56 | 355 | 7.0 | 19.1 | 0.00 | 0.00 | 0.00 | 49 | 1001.9 |
| 20260504210814 | 56 | 346 | 6.1 | 19.1 | 0.00 | 0.00 | 0.00 | 51 | 1002.0 |
| 20260504210719 | 56 | 340 | 8.7 | 19.1 | 0.00 | 0.00 | 0.00 | 48 | 1002.0 |
| 20260504210626 | 56 | 343 | 10.4 | 19.1 | 0.00 | 0.00 | 0.00 | 47 | 1002.0 |
| 20260504210551 | 56 | 349 | 12.2 | 19.1 | 0.00 | 0.00 | 0.00 | 48 | 1001.9 |
| 20260504210406 | 56 | 309 | 12.2 | 19.1 | 0.00 | 0.00 | 0.00 | 47 | 1001.9 |
| 20260504210329 | 56 | 355 | 11.3 | 19.1 | 0.00 | 0.00 | 0.00 | 48 | 1001.9 |
| 20260504210212 | 56 | 5 | 12.2 | 19.1 | 0.00 | 0.00 | 0.00 | 48 | 1001.9 |
| 20260504210116 | 56 | 5 | 11.3 | 16.5 | 0.00 | 0.00 | 0.00 | 48 | 1001.8 |
| 20260504210020 | 56 | 25 | 10.4 | 16.5 | 0.00 | 0.00 | 0.00 | 48 | 1001.8 |
| 20260504205928 | 56 | 9 | 8.7 | 16.5 | 0.00 | 0.00 | 0.00 | 48 | 1001.8 |
| 20260504205851 | 56 | 355 | 9.6 | 19.1 | 0.00 | 0.00 | 0.00 | 48 | 1001.8 |
| 20260504205707 | 56 | 5 | 8.7 | 19.1 | 0.00 | 0.00 | 0.00 | 46 | 1001.9 |
| 20260504205610 | 56 | 336 | 7.0 | 19.1 | 0.00 | 0.00 | 0.00 | 46 | 1001.8 |
| 20260504205513 | 56 | 35 | 9.6 | 19.1 | 0.00 | 0.00 | 0.00 | 46 | 1001.8 |
| 20260504205416 | 57 | 360 | 11.3 | 20.0 | 0.00 | 0.00 | 0.00 | 46 | 1001.7 |
| 20260504205319 | 57 | 347 | 10.4 | 20.0 | 0.00 | 0.00 | 0.00 | 45 | 1001.8 |
| 20260504205206 | 57 | 304 | 11.3 | 20.0 | 0.00 | 0.00 | 0.00 | 46 | 1001.7 |
| 20260504205129 | 57 | 340 | 13.0 | 20.0 | 0.00 | 0.00 | 0.00 | 45 | 1001.8 |
| 20260504205011 | 57 | 19 | 13.9 | 20.0 | 0.00 | 0.00 | 0.00 | 46 | 1001.7 |
| 20260504204914 | 58 | 343 | 12.2 | 20.0 | 0.00 | 0.00 | 0.00 | 46 | 1001.7 |
| 20260504204818 | 58 | 315 | 12.2 | 20.0 | 0.00 | 0.00 | 0.00 | 46 | 1001.6 |
| 20260504204720 | 58 | 332 | 13.9 | 20.0 | 0.00 | 0.00 | 0.00 | 46 | 1001.7 |
| 20260504204608 | 58 | 360 | 12.2 | 20.0 | 0.00 | 0.00 | 0.00 | 45 | 1001.6 |
| 20260504204531 | 58 | 42 | 10.4 | 16.5 | 0.00 | 0.00 | 0.00 | 46 | 1001.6 |
| 20260504204434 | 59 | 360 | 9.6 | 16.5 | 0.00 | 0.00 | 0.00 | 46 | 1001.5 |
| 20260504204315 | 59 | 65 | 9.6 | 16.5 | 0.00 | 0.00 | 0.00 | 47 | 1001.6 |
| 20260504204218 | 59 | 9 | 10.4 | 16.5 | 0.00 | 0.00 | 0.00 | 46 | 1001.6 |
| 20260504204121 | 59 | 360 | 10.4 | 19.1 | 0.00 | 0.00 | 0.00 | 46 | 1001.6 |
| 20260504204022 | 59 | 9 | 10.4 | 20.0 | 0.00 | 0.00 | 0.00 | 45 | 1001.6 |
| 20260504203931 | 59 | 19 | 10.4 | 20.0 | 0.00 | 0.00 | 0.00 | 46 | 1001.6 |
| 20260504203806 | 59 | 325 | 9.6 | 20.0 | 0.00 | 0.00 | 0.00 | 48 | 1001.7 |
| 20260504203709 | 58 | 287 | 8.7 | 20.0 | 0.00 | 0.00 | 0.00 | 47 | 1001.6 |
| 20260504203611 | 58 | 337 | 10.4 | 20.0 | 0.00 | 0.00 | 0.00 | 47 | 1001.6 |
| 20260504203515 | 58 | 360 | 12.2 | 20.0 | 0.00 | 0.00 | 0.00 | 46 | 1001.6 |
| 20260504203417 | 58 | 5 | 13.0 | 20.0 | 0.00 | 0.00 | 0.00 | 46 | 1001.6 |
| 20260504203306 | 58 | 360 | 13.9 | 20.0 | 0.00 | 0.00 | 0.00 | 47 | 1001.5 |
| 20260504203207 | 58 | 13 | 11.3 | 20.0 | 0.00 | 0.00 | 0.00 | 48 | 1001.5 |
| 20260504203131 | 58 | 360 | 10.4 | 20.0 | 0.00 | 0.00 | 0.00 | 48 | 1001.5 |
| 20260504203014 | 58 | 5 | 10.4 | 20.0 | 0.00 | 0.00 | 0.00 | 47 | 1001.5 |
| 20260504202917 | 58 | 346 | 10.4 | 20.0 | 0.00 | 0.00 | 0.00 | 47 | 1001.5 |
| 20260504202820 | 58 | 5 | 10.4 | 20.0 | 0.00 | 0.00 | 0.00 | 47 | 1001.5 |
| 20260504202708 | 57 | 30 | 11.3 | 20.0 | 0.00 | 0.00 | 0.00 | 48 | 1001.5 |
| 20260504202610 | 57 | 11 | 11.3 | 20.0 | 0.00 | 0.00 | 0.00 | 50 | 1001.5 |
| 20260504202513 | 57 | 355 | 12.2 | 20.0 | 0.00 | 0.00 | 0.00 | 49 | 1001.5 |
| 20260504202417 | 57 | 345 | 12.2 | 20.0 | 0.00 | 0.00 | 0.00 | 48 | 1001.6 |
| 20260504202319 | 57 | 5 | 10.4 | 20.0 | 0.00 | 0.00 | 0.00 | 49 | 1001.5 |
| 20260504202243 | 56 | 31 | 9.6 | 25.2 | 0.00 | 0.00 | 0.00 | 49 | 1001.5 |
| 20260504202123 | 56 | 347 | 11.3 | 25.2 | 0.00 | 0.00 | 0.00 | 49 | 1001.5 |
| 20260504202031 | 56 | 5 | 12.2 | 25.2 | 0.00 | 0.00 | 0.00 | 47 | 1001.4 |
| 20260504201907 | 57 | 38 | 10.4 | 25.2 | 0.00 | 0.00 | 0.00 | 48 | 1001.4 |
| 20260504201810 | 57 | 36 | 10.4 | 25.2 | 0.00 | 0.00 | 0.00 | 48 | 1001.4 |
| 20260504201733 | 57 | 355 | 11.3 | 25.2 | 0.00 | 0.00 | 0.00 | 47 | 1001.4 |
| 20260504201615 | 57 | 351 | 12.2 | 25.2 | 0.00 | 0.00 | 0.00 | 48 | 1001.5 |
| 20260504201519 | 57 | 19 | 13.9 | 25.2 | 0.00 | 0.00 | 0.00 | 48 | 1001.5 |
| 20260504201406 | 57 | 5 | 12.2 | 25.2 | 0.00 | 0.00 | 0.00 | 49 | 1001.4 |
| 20260504201328 | 57 | 5 | 10.4 | 21.7 | 0.00 | 0.00 | 0.00 | 48 | 1001.5 |
| 20260504201205 | 57 | 19 | 10.4 | 21.7 | 0.00 | 0.00 | 0.00 | 48 | 1001.5 |
| 20260504201107 | 57 | 360 | 12.2 | 21.7 | 0.00 | 0.00 | 0.00 | 48 | 1001.5 |
| 20260504201012 | 57 | 22 | 11.3 | 21.7 | 0.00 | 0.00 | 0.00 | 48 | 1001.3 |
| 20260504200915 | 57 | 10 | 11.3 | 21.7 | 0.00 | 0.00 | 0.00 | 47 | 1001.4 |
| 20260504200817 | 57 | 355 | 12.2 | 21.7 | 0.00 | 0.00 | 0.00 | 47 | 1001.4 |
| 20260504200705 | 58 | 40 | 13.9 | 21.7 | 0.00 | 0.00 | 0.00 | 47 | 1001.4 |
| 20260504200629 | 58 | 36 | 15.6 | 21.7 | 0.00 | 0.00 | 0.00 | 47 | 1001.3 |
| 20260504200531 | 58 | 32 | 14.8 | 21.7 | 0.00 | 0.00 | 0.00 | 47 | 1001.3 |
| 20260504200406 | 58 | 9 | 13.0 | 21.7 | 0.00 | 0.00 | 0.00 | 47 | 1001.4 |
| 20260504200330 | 59 | 348 | 13.9 | 21.7 | 0.00 | 0.00 | 0.00 | 48 | 1001.2 |
| 20260504200212 | 59 | 15 | 13.9 | 22.6 | 0.00 | 0.00 | 0.00 | 46 | 1001.3 |
| 20260504200115 | 59 | 355 | 13.9 | 22.6 | 0.00 | 0.00 | 0.00 | 45 | 1001.2 |
| 20260504200022 | 59 | 342 | 10.4 | 22.6 | 0.00 | 0.00 | 0.00 | 45 | 1001.1 |
| 20260504195926 | 59 | 355 | 7.8 | 22.6 | 0.00 | 0.00 | 0.00 | 45 | 1001.0 |
| 20260504195808 | 60 | 355 | 10.4 | 22.6 | 0.00 | 0.00 | 0.00 | 46 | 1000.9 |
| 20260504195712 | 60 | 5 | 13.0 | 22.6 | 0.00 | 0.00 | 0.00 | 45 | 1001.0 |
| 20260504195615 | 60 | 348 | 14.8 | 22.6 | 0.00 | 0.00 | 0.00 | 43 | 1001.2 |
| 20260504195518 | 60 | 360 | 13.0 | 22.6 | 0.00 | 0.00 | 0.00 | 45 | 1001.1 |
| 20260504195406 | 60 | 355 | 9.6 | 17.4 | 0.00 | 0.00 | 0.00 | 46 | 1000.9 |
| 20260504195329 | 60 | 5 | 11.3 | 19.1 | 0.00 | 0.00 | 0.00 | 45 | 1001.0 |
| 20260504195204 | 60 | 305 | 11.3 | 21.7 | 0.00 | 0.00 | 0.00 | 47 | 1001.1 |
| 20260504195109 | 60 | 360 | 10.4 | 21.7 | 0.00 | 0.00 | 0.00 | 47 | 1001.1 |
| 20260504195011 | 60 | 5 | 10.4 | 21.7 | 0.00 | 0.00 | 0.00 | 47 | 1001.0 |
| 20260504194915 | 59 | 349 | 10.4 | 21.7 | 0.00 | 0.00 | 0.00 | 46 | 1001.1 |
| 20260504194822 | 59 | 340 | 10.4 | 21.7 | 0.00 | 0.00 | 0.00 | 46 | 1001.0 |
| 20260504194725 | 59 | 13 | 12.2 | 21.7 | 0.00 | 0.00 | 0.00 | 47 | 1000.9 |
| 20260504194608 | 59 | 341 | 13.9 | 21.7 | 0.00 | 0.00 | 0.00 | 46 | 1000.9 |
| 20260504194511 | 59 | 331 | 15.6 | 21.7 | 0.00 | 0.00 | 0.00 | 47 | 1001.0 |
| 20260504194417 | 59 | 348 | 13.9 | 21.7 | 0.00 | 0.00 | 0.00 | 46 | 1001.0 |
| 20260504194340 | 59 | 5 | 13.0 | 19.1 | 0.00 | 0.00 | 0.00 | 48 | 1000.9 |
| 20260504194223 | 59 | 355 | 13.9 | 19.1 | 0.00 | 0.00 | 0.00 | 46 | 1001.1 |
| 20260504194129 | 59 | 9 | 14.8 | 19.1 | 0.00 | 0.00 | 0.00 | 47 | 1001.0 |
| 20260504194005 | 59 | 5 | 12.2 | 19.1 | 0.00 | 0.00 | 0.00 | 47 | 1001.0 |
| 20260504193907 | 59 | 360 | 11.3 | 17.4 | 0.00 | 0.00 | 0.00 | 47 | 1000.9 |
| 20260504193812 | 59 | 14 | 9.6 | 17.4 | 0.00 | 0.00 | 0.00 | 46 | 1000.9 |
| 20260504193715 | 59 | 11 | 10.4 | 18.2 | 0.00 | 0.00 | 0.00 | 46 | 1001.0 |
| 20260504193619 | 59 | 351 | 10.4 | 18.2 | 0.00 | 0.00 | 0.00 | 45 | 1000.9 |
| 20260504193540 | 59 | 31 | 7.8 | 18.2 | 0.00 | 0.00 | 0.00 | 47 | 1001.0 |
| 20260504193428 | 59 | 321 | 6.1 | 18.2 | 0.00 | 0.00 | 0.00 | 47 | 1000.8 |
| 20260504193304 | 59 | 336 | 8.7 | 21.7 | 0.00 | 0.00 | 0.00 | 48 | 1000.7 |
| 20260504193207 | 59 | 350 | 9.6 | 21.7 | 0.00 | 0.00 | 0.00 | 47 | 1000.8 |
| 20260504193111 | 60 | 15 | 10.4 | 21.7 | 0.00 | 0.00 | 0.00 | 47 | 1000.7 |
| 20260504193037 | 60 | 37 | 11.3 | 21.7 | 0.00 | 0.00 | 0.00 | 46 | 1000.9 |
| 20260504192919 | 60 | 28 | 12.2 | 21.7 | 0.00 | 0.00 | 0.00 | 46 | 1000.8 |
| 20260504192808 | 60 | 340 | 11.3 | 21.7 | 0.00 | 0.00 | 0.00 | 48 | 1000.8 |
| 20260504192711 | 60 | 347 | 12.2 | 21.7 | 0.00 | 0.00 | 0.00 | 46 | 1000.7 |
| 20260504192617 | 60 | 320 | 11.3 | 21.7 | 0.00 | 0.00 | 0.00 | 48 | 1000.9 |
| 20260504192520 | 60 | 325 | 11.3 | 21.7 | 0.00 | 0.00 | 0.00 | 47 | 1000.9 |
| 20260504192423 | 60 | 5 | 11.3 | 19.1 | 0.00 | 0.00 | 0.00 | 45 | 1000.6 |
| 20260504192308 | 60 | 10 | 10.4 | 19.1 | 0.00 | 0.00 | 0.00 | 47 | 1000.7 |
| 20260504192217 | 60 | 5 | 9.6 | 19.1 | 0.00 | 0.00 | 0.00 | 49 | 1000.7 |
| 20260504192121 | 60 | 13 | 9.6 | 19.1 | 0.00 | 0.00 | 0.00 | 48 | 1000.6 |
| 20260504192006 | 60 | 334 | 11.3 | 19.1 | 0.00 | 0.00 | 0.00 | 47 | 1000.7 |
| 20260504191931 | 60 | 350 | 11.3 | 19.1 | 0.00 | 0.00 | 0.00 | 48 | 1000.7 |
| 20260504191813 | 60 | 345 | 12.2 | 19.1 | 0.00 | 0.00 | 0.00 | 48 | 1000.7 |
| 20260504191718 | 60 | 9 | 11.3 | 19.1 | 0.00 | 0.00 | 0.00 | 48 | 1000.6 |
| 20260504191606 | 60 | 5 | 10.4 | 20.9 | 0.00 | 0.00 | 0.00 | 48 | 1000.6 |
| 20260504191510 | 60 | 40 | 11.3 | 20.9 | 0.00 | 0.00 | 0.00 | 46 | 1000.6 |
| 20260504191415 | 60 | 360 | 11.3 | 21.7 | 0.00 | 0.00 | 0.00 | 47 | 1000.5 |
| 20260504191319 | 60 | 344 | 11.3 | 21.7 | 0.00 | 0.00 | 0.00 | 48 | 1000.6 |
| 20260504191223 | 60 | 28 | 9.6 | 21.7 | 0.00 | 0.00 | 0.00 | 48 | 1000.6 |
| 20260504191128 | 60 | 336 | 8.7 | 21.7 | 0.00 | 0.00 | 0.00 | 48 | 1000.5 |
| 20260504191016 | 60 | 311 | 11.3 | 21.7 | 0.00 | 0.00 | 0.00 | 49 | 1000.6 |
| 20260504190920 | 60 | 9 | 11.3 | 21.7 | 0.00 | 0.00 | 0.00 | 48 | 1000.5 |
| 20260504190822 | 60 | 355 | 12.2 | 21.7 | 0.00 | 0.00 | 0.00 | 49 | 1000.5 |
| 20260504190708 | 60 | 348 | 14.8 | 21.7 | 0.00 | 0.00 | 0.00 | 48 | 1000.5 |
| 20260504190611 | 60 | 360 | 13.9 | 21.7 | 0.00 | 0.00 | 0.00 | 47 | 1000.5 |
| 20260504190515 | 60 | 342 | 11.3 | 20.0 | 0.00 | 0.00 | 0.00 | 48 | 1000.4 |
| 20260504190420 | 60 | 355 | 10.4 | 20.9 | 0.00 | 0.00 | 0.00 | 47 | 1000.4 |
| 20260504190328 | 60 | 15 | 12.2 | 20.9 | 0.00 | 0.00 | 0.00 | 48 | 1000.4 |
| 20260504190205 | 60 | 327 | 11.3 | 21.7 | 0.00 | 0.00 | 0.00 | 49 | 1000.4 |
| 20260504190109 | 60 | 13 | 10.4 | 21.7 | 0.00 | 0.00 | 0.00 | 52 | 1000.2 |
| 20260504190034 | 60 | 351 | 10.4 | 21.7 | 0.00 | 0.00 | 0.00 | 49 | 1000.2 |
| 20260504185918 | 60 | 52 | 12.2 | 21.7 | 0.00 | 0.00 | 0.00 | 50 | 1000.2 |
| 20260504185821 | 60 | 351 | 13.0 | 21.7 | 0.00 | 0.00 | 0.00 | 49 | 1000.5 |
| 20260504185711 | 60 | 360 | 13.9 | 21.7 | 0.00 | 0.00 | 0.00 | 48 | 1000.3 |
| 20260504185615 | 60 | 29 | 14.8 | 21.7 | 0.00 | 0.00 | 0.00 | 48 | 1000.3 |
| 20260504185539 | 60 | 11 | 13.0 | 21.7 | 0.00 | 0.00 | 0.00 | 48 | 1000.2 |
| 20260504185423 | 60 | 319 | 11.3 | 21.7 | 0.00 | 0.00 | 0.00 | 48 | 1000.1 |
| 20260504185309 | 60 | 20 | 9.6 | 21.7 | 0.00 | 0.00 | 0.00 | 49 | 1000.1 |
| 20260504185212 | 60 | 28 | 9.6 | 21.7 | 0.00 | 0.00 | 0.00 | 49 | 1000.1 |
| 20260504185120 | 60 | 360 | 10.4 | 22.6 | 0.00 | 0.00 | 0.00 | 48 | 1000.3 |
| 20260504185024 | 60 | 49 | 11.3 | 24.3 | 0.00 | 0.00 | 0.00 | 49 | 1000.2 |
| 20260504184927 | 60 | 12 | 12.2 | 24.3 | 0.00 | 0.00 | 0.00 | 49 | 1000.1 |
| 20260504184805 | 60 | 11 | 11.3 | 24.3 | 0.00 | 0.00 | 0.00 | 49 | 1000.1 |
| 20260504184708 | 60 | 5 | 10.4 | 24.3 | 0.00 | 0.00 | 0.00 | 48 | 1000.2 |
| 20260504184614 | 61 | 36 | 10.4 | 24.3 | 0.00 | 0.00 | 0.00 | 49 | 1000.2 |
| 20260504184522 | 60 | 5 | 10.4 | 24.3 | 0.00 | 0.00 | 0.00 | 49 | 1000.2 |
| 20260504184406 | 60 | 19 | 13.0 | 24.3 | 0.00 | 0.00 | 0.00 | 48 | 1000.2 |
| 20260504184309 | 60 | 313 | 13.9 | 24.3 | 0.00 | 0.00 | 0.00 | 47 | 1000.1 |
| 20260504184214 | 60 | 329 | 12.2 | 24.3 | 0.00 | 0.00 | 0.00 | 50 | 999.9 |
| 20260504184139 | 60 | 29 | 11.3 | 17.4 | 0.00 | 0.00 | 0.00 | 48 | 1000.0 |
| 20260504184023 | 60 | 329 | 11.3 | 17.4 | 0.00 | 0.00 | 0.00 | 48 | 1000.0 |
| 20260504183912 | 60 | 360 | 10.4 | 17.4 | 0.00 | 0.00 | 0.00 | 47 | 1000.0 |
| 20260504183816 | 60 | 9 | 11.3 | 17.4 | 0.00 | 0.00 | 0.00 | 48 | 999.9 |
| 20260504183721 | 60 | 351 | 10.4 | 17.4 | 0.00 | 0.00 | 0.00 | 48 | 1000.0 |
| 20260504183645 | 60 | 346 | 10.4 | 20.9 | 0.00 | 0.00 | 0.00 | 48 | 1000.0 |
| 20260504183549 | 60 | 346 | 11.3 | 20.9 | 0.00 | 0.00 | 0.00 | 50 | 1000.0 |
| 20260504183404 | 60 | 5 | 9.6 | 23.5 | 0.00 | 0.00 | 0.00 | 49 | 999.9 |
| 20260504183308 | 60 | 355 | 7.8 | 23.5 | 0.00 | 0.00 | 0.00 | 49 | 1000.0 |
| 20260504183215 | 60 | 44 | 9.6 | 23.5 | 0.00 | 0.00 | 0.00 | 50 | 999.9 |
| 20260504183140 | 60 | 344 | 8.7 | 23.5 | 0.00 | 0.00 | 0.00 | 49 | 999.9 |
| 20260504183004 | 60 | 311 | 11.3 | 23.5 | 0.00 | 0.00 | 0.00 | 48 | 999.8 |
| 20260504182908 | 60 | 344 | 13.9 | 23.5 | 0.00 | 0.00 | 0.00 | 48 | 999.9 |
| 20260504182811 | 60 | 337 | 15.6 | 23.5 | 0.00 | 0.00 | 0.00 | 48 | 999.9 |
| 20260504182715 | 60 | 360 | 12.2 | 23.5 | 0.00 | 0.00 | 0.00 | 48 | 999.9 |
| 20260504182619 | 60 | 346 | 10.4 | 23.5 | 0.00 | 0.00 | 0.00 | 52 | 1000.0 |
| 20260504182507 | 60 | 38 | 9.6 | 21.7 | 0.00 | 0.00 | 0.00 | 50 | 999.7 |
| 20260504182430 | 60 | 34 | 9.6 | 21.7 | 0.00 | 0.00 | 0.00 | 49 | 999.7 |
| 20260504182306 | 60 | 22 | 9.6 | 21.7 | 0.00 | 0.00 | 0.00 | 49 | 999.7 |
| 20260504182210 | 60 | 355 | 11.3 | 21.7 | 0.00 | 0.00 | 0.00 | 48 | 999.7 |
| 20260504182114 | 60 | 11 | 13.9 | 21.7 | 0.00 | 0.00 | 0.00 | 47 | 999.7 |
| 20260504182019 | 61 | 349 | 14.8 | 21.7 | 0.00 | 0.00 | 0.00 | 48 | 999.6 |
| 20260504181926 | 61 | 5 | 13.9 | 21.7 | 0.00 | 0.00 | 0.00 | 48 | 999.6 |
| 20260504181851 | 61 | 31 | 13.0 | 21.7 | 0.00 | 0.00 | 0.00 | 48 | 999.7 |
| 20260504181706 | 61 | 350 | 13.0 | 20.0 | 0.00 | 0.00 | 0.00 | 49 | 999.6 |
| 20260504181610 | 61 | 348 | 11.3 | 20.9 | 0.00 | 0.00 | 0.00 | 48 | 999.6 |
| 20260504181532 | 61 | 342 | 8.7 | 20.9 | 0.00 | 0.00 | 0.00 | 50 | 999.6 |
| 20260504181414 | 60 | 318 | 8.7 | 20.9 | 0.00 | 0.00 | 0.00 | 51 | 999.6 |
| 20260504181319 | 60 | 348 | 10.4 | 24.3 | 0.00 | 0.00 | 0.00 | 49 | 999.6 |
| 20260504181206 | 60 | 36 | 10.4 | 24.3 | 0.00 | 0.00 | 0.00 | 47 | 999.5 |
| 20260504181108 | 60 | 30 | 10.4 | 25.2 | 0.00 | 0.00 | 0.00 | 47 | 999.5 |
| 20260504181011 | 60 | 344 | 11.3 | 25.2 | 0.00 | 0.00 | 0.00 | 49 | 999.6 |
| 20260504180916 | 61 | 336 | 13.9 | 25.2 | 0.00 | 0.00 | 0.00 | 47 | 999.7 |
| 20260504180818 | 61 | 10 | 14.8 | 25.2 | 0.00 | 0.00 | 0.00 | 47 | 999.7 |
| 20260504180705 | 61 | 350 | 13.9 | 25.2 | 0.00 | 0.00 | 0.00 | 48 | 999.6 |
| 20260504180628 | 61 | 355 | 15.6 | 25.2 | 0.00 | 0.00 | 0.00 | 48 | 999.6 |
| 20260504180505 | 61 | 20 | 16.5 | 25.2 | 0.00 | 0.00 | 0.00 | 47 | 999.6 |
| 20260504180408 | 61 | 26 | 13.9 | 25.2 | 0.00 | 0.00 | 0.00 | 46 | 999.6 |
| 20260504180331 | 61 | 344 | 13.9 | 25.2 | 0.00 | 0.00 | 0.00 | 48 | 999.6 |
| 20260504180215 | 61 | 296 | 13.0 | 20.9 | 0.00 | 0.00 | 0.00 | 46 | 999.5 |
| 20260504180138 | 61 | 360 | 11.3 | 20.9 | 0.00 | 0.00 | 0.00 | 47 | 999.6 |
| 20260504180004 | 61 | 326 | 10.4 | 20.9 | 0.00 | 0.00 | 0.00 | 47 | 999.5 |
| 20260504175927 | 61 | 355 | 11.3 | 20.9 | 0.00 | 0.00 | 0.00 | 47 | 999.4 |
| 20260504175850 | 61 | 360 | 11.3 | 20.9 | 0.00 | 0.00 | 0.00 | 45 | 999.4 |
| 20260504175704 | 61 | 346 | 14.8 | 20.9 | 0.00 | 0.00 | 0.00 | 43 | 999.2 |
| 20260504175608 | 61 | 344 | 13.0 | 20.9 | 0.00 | 0.00 | 0.00 | 44 | 999.3 |
| 20260504175513 | 61 | 360 | 9.6 | 20.0 | 0.00 | 0.00 | 0.00 | 46 | 999.1 |
| 20260504175417 | 61 | 327 | 7.8 | 20.0 | 0.00 | 0.00 | 0.00 | 45 | 999.1 |
| 20260504175304 | 62 | 355 | 8.7 | 20.0 | 0.00 | 0.00 | 0.00 | 44 | 999.1 |
| 20260504175228 | 62 | 355 | 11.3 | 20.0 | 0.00 | 0.00 | 0.00 | 44 | 999.2 |
| 20260504175130 | 62 | 338 | 13.9 | 20.0 | 0.00 | 0.00 | 0.00 | 43 | 999.2 |
| 20260504175012 | 62 | 346 | 13.0 | 20.0 | 0.00 | 0.00 | 0.00 | 44 | 999.1 |
| 20260504174916 | 62 | 323 | 10.4 | 19.1 | 0.00 | 0.00 | 0.00 | 45 | 999.1 |
| 20260504174821 | 62 | 296 | 9.6 | 19.1 | 0.00 | 0.00 | 0.00 | 45 | 998.9 |
| 20260504174705 | 62 | 337 | 10.4 | 23.5 | 0.00 | 0.00 | 0.00 | 43 | 999.2 |
| 20260504174613 | 62 | 342 | 9.6 | 23.5 | 0.00 | 0.00 | 0.00 | 45 | 999.0 |
| 20260504174514 | 61 | 271 | 8.7 | 23.5 | 0.00 | 0.00 | 0.00 | 45 | 999.0 |
| 20260504174440 | 61 | 347 | 9.6 | 23.5 | 0.00 | 0.00 | 0.00 | 45 | 999.1 |
| 20260504174340 | 61 | 360 | 10.4 | 23.5 | 0.00 | 0.00 | 0.00 | 45 | 999.1 |
| 20260504174204 | 61 | 47 | 13.0 | 23.5 | 0.00 | 0.00 | 0.00 | 42 | 999.1 |
| 20260504174107 | 61 | 346 | 13.9 | 23.5 | 0.00 | 0.00 | 0.00 | 42 | 999.1 |
| 20260504174010 | 61 | 340 | 13.9 | 23.5 | 0.00 | 0.00 | 0.00 | 43 | 999.1 |
| 20260504173937 | 61 | 342 | 12.2 | 23.5 | 0.00 | 0.00 | 0.00 | 45 | 999.0 |
| 20260504173820 | 61 | 316 | 11.3 | 20.9 | 0.00 | 0.00 | 0.00 | 44 | 999.1 |
| 20260504173723 | 61 | 15 | 13.9 | 20.9 | 0.00 | 0.00 | 0.00 | 44 | 999.0 |
| 20260504173627 | 61 | 322 | 13.0 | 20.9 | 0.00 | 0.00 | 0.00 | 44 | 999.1 |
| 20260504173510 | 61 | 308 | 12.2 | 20.9 | 0.00 | 0.00 | 0.00 | 44 | 999.1 |
| 20260504173415 | 61 | 320 | 13.9 | 20.9 | 0.00 | 0.00 | 0.00 | 44 | 999.1 |
| 20260504173319 | 61 | 329 | 13.9 | 21.7 | 0.00 | 0.00 | 0.00 | 43 | 999.1 |
| 20260504173227 | 61 | 340 | 11.3 | 24.3 | 0.00 | 0.00 | 0.00 | 42 | 999.1 |
| 20260504173110 | 61 | 355 | 10.4 | 24.3 | 0.00 | 0.00 | 0.00 | 43 | 999.0 |
| 20260504173014 | 61 | 322 | 12.2 | 24.3 | 0.00 | 0.00 | 0.00 | 44 | 999.1 |
| 20260504172918 | 61 | 327 | 12.2 | 24.3 | 0.00 | 0.00 | 0.00 | 44 | 999.1 |
| 20260504172843 | 61 | 309 | 12.2 | 24.3 | 0.00 | 0.00 | 0.00 | 43 | 999.0 |
| 20260504172727 | 61 | 341 | 11.3 | 24.3 | 0.00 | 0.00 | 0.00 | 44 | 999.0 |
| 20260504172609 | 62 | 343 | 13.0 | 24.3 | 0.00 | 0.00 | 0.00 | 44 | 999.0 |
| 20260504172518 | 61 | 326 | 15.6 | 24.3 | 0.00 | 0.00 | 0.00 | 44 | 999.2 |
| 20260504172421 | 61 | 328 | 14.8 | 24.3 | 0.00 | 0.00 | 0.00 | 43 | 999.1 |
| 20260504172325 | 61 | 336 | 13.9 | 19.1 | 0.00 | 0.00 | 0.00 | 42 | 999.0 |
| 20260504172207 | 61 | 333 | 13.9 | 19.1 | 0.00 | 0.00 | 0.00 | 43 | 999.0 |
| 20260504172110 | 61 | 338 | 13.0 | 19.1 | 0.00 | 0.00 | 0.00 | 44 | 998.9 |
| 20260504172013 | 61 | 350 | 9.6 | 19.1 | 0.00 | 0.00 | 0.00 | 44 | 998.9 |
| 20260504171920 | 61 | 360 | 8.7 | 19.1 | 0.00 | 0.00 | 0.00 | 47 | 999.0 |
| 20260504171844 | 61 | 360 | 11.3 | 19.1 | 0.00 | 0.00 | 0.00 | 47 | 998.9 |
| 20260504171707 | 61 | 327 | 13.0 | 19.1 | 0.00 | 0.00 | 0.00 | 48 | 998.9 |
| 20260504171632 | 61 | 306 | 11.3 | 19.1 | 0.00 | 0.00 | 0.00 | 48 | 999.0 |
| 20260504171513 | 61 | 319 | 11.3 | 18.2 | 0.00 | 0.00 | 0.00 | 48 | 999.1 |
| 20260504171438 | 61 | 331 | 12.2 | 18.2 | 0.00 | 0.00 | 0.00 | 50 | 999.1 |
| 20260504171320 | 60 | 291 | 12.2 | 18.2 | 0.00 | 0.00 | 0.00 | 49 | 999.1 |
| 20260504171207 | 60 | 337 | 12.2 | 18.2 | 0.00 | 0.00 | 0.00 | 46 | 999.1 |
| 20260504171132 | 60 | 355 | 10.4 | 17.4 | 0.00 | 0.00 | 0.00 | 47 | 999.3 |
| 20260504171016 | 60 | 329 | 11.3 | 17.4 | 0.00 | 0.00 | 0.00 | 48 | 999.2 |
| 20260504170922 | 60 | 355 | 10.4 | 17.4 | 0.00 | 0.00 | 0.00 | 49 | 999.2 |
| 20260504170805 | 60 | 312 | 10.4 | 17.4 | 0.00 | 0.00 | 0.00 | 50 | 999.2 |
| 20260504170709 | 60 | 321 | 10.4 | 18.2 | 0.00 | 0.00 | 0.00 | 49 | 999.0 |
| 20260504170612 | 60 | 293 | 9.6 | 18.2 | 0.00 | 0.00 | 0.00 | 48 | 999.1 |
| 20260504170519 | 60 | 332 | 8.7 | 18.2 | 0.00 | 0.00 | 0.00 | 50 | 999.0 |
| 20260504170423 | 60 | 311 | 11.3 | 18.2 | 0.00 | 0.00 | 0.00 | 50 | 999.0 |
| 20260504170328 | 60 | 346 | 11.3 | 18.2 | 0.00 | 0.00 | 0.00 | 49 | 999.1 |
| 20260504170212 | 60 | 306 | 10.4 | 18.2 | 0.00 | 0.00 | 0.00 | 48 | 999.0 |
| 20260504170115 | 60 | 341 | 12.2 | 18.2 | 0.00 | 0.00 | 0.00 | 49 | 999.0 |
| 20260504160404 | 61 | 329 | 11.3 | 17.4 | 0.00 | 0.00 | 0.00 | 48 | 998.8 |
| 20260504160329 | 61 | 296 | 10.4 | 17.4 | 0.00 | 0.00 | 0.00 | 46 | 998.8 |
| 20260504160232 | 61 | 360 | 9.6 | 16.5 | 0.00 | 0.00 | 0.00 | 48 | 998.9 |
| 20260504160116 | 61 | 348 | 7.8 | 19.1 | 0.00 | 0.00 | 0.00 | 47 | 998.8 |
| 20260504151127 | 60 | 317 | 10.4 | 23.5 | 0.00 | 0.00 | 0.00 | 47 | 998.4 |
| 20260504151011 | 60 | 327 | 11.3 | 23.5 | 0.00 | 0.00 | 0.00 | 47 | 998.5 |
| 20260504150919 | 60 | 339 | 13.0 | 23.5 | 0.00 | 0.00 | 0.00 | 47 | 998.4 |
| 20260504150825 | 59 | 340 | 13.0 | 23.5 | 0.00 | 0.00 | 0.00 | 46 | 998.3 |
| 20260504150727 | 60 | 5 | 13.0 | 23.5 | 0.00 | 0.00 | 0.00 | 48 | 998.4 |
| 20260504150605 | 59 | 317 | 13.0 | 23.5 | 0.00 | 0.00 | 0.00 | 47 | 998.4 |
| 20260504150529 | 60 | 308 | 13.0 | 23.5 | 0.00 | 0.00 | 0.00 | 48 | 998.5 |
| 20260504150412 | 59 | 311 | 12.2 | 23.5 | 0.00 | 0.00 | 0.00 | 47 | 998.4 |
| 20260504150338 | 59 | 11 | 11.3 | 23.5 | 0.00 | 0.00 | 0.00 | 48 | 998.3 |
| 20260504150241 | 59 | 9 | 12.2 | 20.9 | 0.00 | 0.00 | 0.00 | 46 | 998.3 |
| 20260504150127 | 59 | 349 | 13.0 | 20.9 | 0.00 | 0.00 | 0.00 | 48 | 998.2 |
| 20260504141323 | 59 | 355 | 9.6 | 14.8 | 0.00 | 0.00 | 0.00 | 51 | 998.3 |
| 20260504141207 | 59 | 360 | 7.8 | 14.8 | 0.00 | 0.00 | 0.00 | 51 | 998.3 |
| 20260504141110 | 59 | 299 | 4.3 | 16.5 | 0.00 | 0.00 | 0.00 | 51 | 998.1 |
| 20260504141018 | 59 | 336 | 5.2 | 20.0 | 0.00 | 0.00 | 0.00 | 51 | 998.1 |
| 20260504140921 | 59 | 304 | 7.0 | 20.0 | 0.00 | 0.00 | 0.00 | 51 | 998.3 |
| 20260504140824 | 59 | 16 | 9.6 | 20.0 | 0.00 | 0.00 | 0.00 | 50 | 998.2 |
| 20260504140748 | 59 | 335 | 10.4 | 20.0 | 0.00 | 0.00 | 0.00 | 49 | 998.2 |
| 20260504140604 | 59 | 339 | 8.7 | 20.0 | 0.00 | 0.00 | 0.00 | 51 | 998.2 |
| 20260504140529 | 58 | 22 | 9.6 | 20.0 | 0.00 | 0.00 | 0.00 | 51 | 998.2 |
| 20260504140406 | 58 | 346 | 10.4 | 20.0 | 0.00 | 0.00 | 0.00 | 49 | 998.1 |
| 20260504140314 | 58 | 346 | 12.2 | 20.0 | 0.00 | 0.00 | 0.00 | 49 | 998.2 |
| 20260504140239 | 58 | 355 | 13.9 | 20.0 | 0.00 | 0.00 | 0.00 | 48 | 998.2 |
| 20260504140141 | 58 | 343 | 12.2 | 20.0 | 0.00 | 0.00 | 0.00 | 49 | 998.3 |
| 20260504130711 | 59 | 333 | 13.0 | 21.7 | 0.00 | 0.00 | 0.00 | 53 | 997.6 |
| 20260504130615 | 59 | 360 | 9.6 | 18.2 | 0.00 | 0.00 | 0.00 | 54 | 997.6 |
| 20260504130520 | 59 | 360 | 8.7 | 17.4 | 0.00 | 0.00 | 0.00 | 54 | 997.5 |
| 20260504130428 | 59 | 5 | 7.0 | 18.2 | 0.00 | 0.00 | 0.00 | 55 | 997.4 |
| 20260504130304 | 60 | 348 | 6.1 | 18.2 | 0.00 | 0.00 | 0.00 | 55 | 997.4 |
| 20260504130209 | 60 | 344 | 7.0 | 18.2 | 0.00 | 0.00 | 0.00 | 55 | 997.3 |
| 20260504130113 | 60 | 284 | 10.4 | 18.2 | 0.00 | 0.00 | 0.00 | 55 | 997.3 |
| 20260504120206 | 60 | 313 | 13.0 | 21.7 | 0.00 | 0.00 | 0.00 | 49 | 996.2 |
| 20260504120111 | 60 | 320 | 10.4 | 21.7 | 0.00 | 0.00 | 0.00 | 49 | 996.4 |
| 20260504110709 | 58 | 281 | 7.8 | 13.9 | 0.00 | 0.00 | 0.00 | 49 | 995.6 |
| 20260504110612 | 58 | 285 | 8.7 | 13.9 | 0.00 | 0.00 | 0.00 | 48 | 995.6 |
| 20260504110520 | 58 | 293 | 7.8 | 12.2 | 0.00 | 0.00 | 0.00 | 49 | 995.6 |
| 20260504110423 | 58 | 296 | 7.8 | 12.2 | 0.00 | 0.00 | 0.00 | 48 | 995.6 |
| 20260504110309 | 58 | 277 | 7.8 | 12.2 | 0.00 | 0.00 | 0.00 | 49 | 995.6 |
| 20260504110215 | 58 | 315 | 7.8 | 12.2 | 0.00 | 0.00 | 0.00 | 48 | 995.6 |
| 20260504110119 | 58 | 269 | 7.8 | 12.2 | 0.00 | 0.00 | 0.00 | 48 | 995.7 |
| 20260504100540 | 59 | 284 | 7.8 | 14.8 | 0.00 | 0.00 | 0.00 | 45 | 995.6 |
| 20260504100421 | 59 | 225 | 7.8 | 14.8 | 0.00 | 0.00 | 0.00 | 44 | 995.7 |
| 20260504100326 | 59 | 276 | 7.8 | 14.8 | 0.00 | 0.00 | 0.00 | 44 | 995.7 |
| 20260504100229 | 59 | 255 | 7.8 | 14.8 | 0.00 | 0.00 | 0.00 | 44 | 995.7 |
| 20260504100112 | 59 | 244 | 7.8 | 14.8 | 0.00 | 0.00 | 0.00 | 45 | 995.8 |
| 20260504090106 | 59 | 271 | 7.8 | 14.8 | 0.00 | 0.00 | 0.00 | 44 | 996.7 |
| 20260504081950 | 58 | 250 | 5.2 | 11.3 | 0.00 | 0.00 | 0.00 | 45 | 997.8 |
| 20260504081806 | 58 | 243 | 5.2 | 11.3 | 0.00 | 0.00 | 0.00 | 45 | 997.8 |
| 20260504081730 | 58 | 262 | 6.1 | 11.3 | 0.00 | 0.00 | 0.00 | 44 | 997.9 |
| 20260504081607 | 58 | 236 | 7.0 | 11.3 | 0.00 | 0.00 | 0.00 | 44 | 997.8 |
| 20260504081512 | 58 | 238 | 7.0 | 11.3 | 0.00 | 0.00 | 0.00 | 44 | 997.8 |
| 20260504081420 | 58 | 262 | 5.2 | 9.6 | 0.00 | 0.00 | 0.00 | 45 | 997.8 |
| 20260504081323 | 58 | 273 | 4.3 | 9.6 | 0.00 | 0.00 | 0.00 | 45 | 997.9 |
| 20260504081227 | 58 | 228 | 4.3 | 9.6 | 0.00 | 0.00 | 0.00 | 45 | 997.9 |
| 20260504081129 | 58 | 265 | 6.1 | 9.6 | 0.00 | 0.00 | 0.00 | 44 | 998.0 |
| 20260504081032 | 58 | 247 | 6.1 | 9.6 | 0.00 | 0.00 | 0.00 | 45 | 997.9 |
| 20260504080915 | 58 | 236 | 5.2 | 9.6 | 0.00 | 0.00 | 0.00 | 45 | 998.0 |
| 20260504080820 | 58 | 267 | 5.2 | 9.6 | 0.00 | 0.00 | 0.00 | 44 | 998.0 |
| 20260504080728 | 58 | 236 | 5.2 | 9.6 | 0.00 | 0.00 | 0.00 | 45 | 998.1 |
| 20260504080611 | 58 | 226 | 5.2 | 9.6 | 0.00 | 0.00 | 0.00 | 44 | 998.1 |
| 20260504080516 | 58 | 260 | 5.2 | 9.6 | 0.00 | 0.00 | 0.00 | 45 | 998.1 |
| 20260504080419 | 58 | 234 | 4.3 | 8.7 | 0.00 | 0.00 | 0.00 | 45 | 998.1 |
| 20260504080343 | 58 | 269 | 4.3 | 7.8 | 0.00 | 0.00 | 0.00 | 45 | 998.2 |
| 20260504080227 | 58 | 233 | 4.3 | 7.8 | 0.00 | 0.00 | 0.00 | 45 | 998.2 |
| 20260504080110 | 58 | 246 | 4.3 | 7.8 | 0.00 | 0.00 | 0.00 | 45 | 998.2 |
| 20260504070307 | 58 | 239 | 4.3 | 9.6 | 0.00 | 0.00 | 0.00 | 46 | 999.2 |
| 20260504070211 | 58 | 244 | 5.2 | 9.6 | 0.00 | 0.00 | 0.00 | 46 | 999.3 |
| 20260504070114 | 58 | 236 | 5.2 | 10.4 | 0.00 | 0.00 | 0.00 | 46 | 999.2 |
| 20260504060218 | 58 | 240 | 4.3 | 8.7 | 0.00 | 0.00 | 0.00 | 47 | 1000.6 |
| 20260504060121 | 58 | 255 | 4.3 | 8.7 | 0.00 | 0.00 | 0.00 | 48 | 1000.6 |
| 20260504050705 | 57 | 228 | 3.5 | 7.0 | 0.00 | 0.00 | 0.00 | 49 | 1001.6 |
| 20260504050608 | 57 | 248 | 2.6 | 7.0 | 0.00 | 0.00 | 0.00 | 50 | 1001.6 |
| 20260504050512 | 57 | 254 | 3.5 | 7.0 | 0.00 | 0.00 | 0.00 | 49 | 1001.7 |
| 20260504050420 | 57 | 209 | 3.5 | 7.0 | 0.00 | 0.00 | 0.00 | 49 | 1001.7 |
| 20260504050303 | 57 | 228 | 2.6 | 7.0 | 0.00 | 0.00 | 0.00 | 49 | 1001.8 |
| 20260504050227 | 57 | 231 | 2.6 | 7.0 | 0.00 | 0.00 | 0.00 | 49 | 1001.8 |
| 20260504050104 | 57 | 228 | 2.6 | 7.0 | 0.00 | 0.00 | 0.00 | 49 | 1001.8 |
| 20260504050009 | 57 | 227 | 3.5 | 7.0 | 0.00 | 0.00 | 0.00 | 49 | 1001.8 |
| 20260504045933 | 57 | 235 | 4.3 | 7.0 | 0.00 | 0.00 | 0.00 | 50 | 1001.8 |
| 20260504045817 | 57 | 248 | 3.5 | 6.1 | 0.00 | 0.00 | 0.00 | 50 | 1001.8 |
| 20260504045705 | 57 | 257 | 3.5 | 6.1 | 0.00 | 0.00 | 0.00 | 50 | 1001.8 |
| 20260504045629 | 57 | 239 | 3.5 | 6.1 | 0.00 | 0.00 | 0.00 | 50 | 1001.8 |
| 20260504045554 | 57 | 217 | 3.5 | 5.2 | 0.00 | 0.00 | 0.00 | 50 | 1001.8 |